Wetterdaten: Sonntag, 04.02.2018
Datum Zeit Temp. Aussen Temp. o. S. +5cm Feuchte Auss BlattFeu 1 Luftdruck Regen Sonnenschein Regendauer Solar Windben Empfang
04.02.2018 00:00 2,2 C 2,2 C 1,7 C 95 % 2 lf 1008,5 hPa 0,0 l/m 0 min 0 min 0 W/m 18,0 km/h (3 Bft) 95,74 %
04.02.2018 00:02 2,2 C 2,2 C 1,7 C 95 % 2 lf 1008,5 hPa 0,0 l/m 0 min 0 min 0 W/m 22,5 km/h (4 Bft) 87,80 %
04.02.2018 00:04 2,3 C 2,2 C 1,7 C 95 % 2 lf 1008,5 hPa 0,0 l/m 0 min 0 min 0 W/m 22,5 km/h (4 Bft) 95,74 %
04.02.2018 00:07 2,3 C 2,2 C 1,1 C 95 % 2 lf 1008,6 hPa 0,0 l/m 0 min 0 min 0 W/m 27,0 km/h (4 Bft) 95,52 %
04.02.2018 00:08 2,2 C 2,2 C 1,1 C 95 % 2 lf 1008,6 hPa 0,0 l/m 0 min 0 min 0 W/m 18,0 km/h (3 Bft) 95,83 %
04.02.2018 00:10 2,2 C 1,7 C 1,1 C 95 % 1 lf 1008,7 hPa 0,0 l/m 0 min 0 min 0 W/m 22,5 km/h (4 Bft) 97,87 %
04.02.2018 00:12 2,2 C 1,7 C 1,1 C 95 % 1 lf 1008,7 hPa 0,0 l/m 0 min 0 min 0 W/m 20,3 km/h (4 Bft) 95,74 %
04.02.2018 00:14 2,1 C 1,7 C 1,1 C 95 % 0 lf 1008,7 hPa 0,0 l/m 0 min 0 min 0 W/m 24,8 km/h (4 Bft) 95,65 %
04.02.2018 00:16 2,1 C 1,7 C 1,1 C 95 % 0 lf 1008,8 hPa 0,0 l/m 0 min 0 min 0 W/m 20,3 km/h (4 Bft) 97,87 %
04.02.2018 00:18 2,0 C 1,7 C 1,1 C 95 % 0 lf 1008,7 hPa 0,0 l/m 0 min 0 min 0 W/m 27,0 km/h (4 Bft) 100,00 %
04.02.2018 00:20 1,9 C 1,7 C 0,6 C 95 % 0 lf 1008,8 hPa 0,0 l/m 0 min 0 min 0 W/m 24,8 km/h (4 Bft) 100,00 %
04.02.2018 00:22 1,9 C 1,7 C 0,6 C 95 % 0 lf 1008,8 hPa 0,0 l/m 0 min 0 min 0 W/m 29,3 km/h (5 Bft) 100,00 %
04.02.2018 00:24 1,8 C 1,7 C 0,6 C 95 % 0 lf 1008,8 hPa 0,0 l/m 0 min 0 min 0 W/m 22,5 km/h (4 Bft) 97,83 %
04.02.2018 00:26 1,7 C 1,7 C 0,6 C 95 % 0 lf 1008,8 hPa 0,0 l/m 0 min 0 min 0 W/m 22,5 km/h (4 Bft) 100,00 %
04.02.2018 00:28 1,7 C 1,7 C 0,6 C 94 % 0 lf 1008,8 hPa 0,0 l/m 0 min 0 min 0 W/m 24,8 km/h (4 Bft) 97,87 %
04.02.2018 00:30 1,7 C 1,1 C 0,6 C 94 % 0 lf 1008,9 hPa 0,0 l/m 0 min 0 min 0 W/m 31,5 km/h (5 Bft) 100,00 %
04.02.2018 00:32 1,6 C 1,1 C 0,6 C 94 % 0 lf 1008,9 hPa 0,0 l/m 0 min 0 min 0 W/m 20,3 km/h (4 Bft) 100,00 %
04.02.2018 00:34 1,5 C 1,1 C 0,6 C 94 % 0 lf 1009,0 hPa 0,0 l/m 0 min 0 min 0 W/m 29,3 km/h (5 Bft) 100,00 %
04.02.2018 00:36 1,4 C 1,1 C 0,6 C 94 % 0 lf 1009,0 hPa 0,0 l/m 0 min 0 min 0 W/m 22,5 km/h (4 Bft) 100,00 %
04.02.2018 00:38 1,4 C 1,1 C 0,6 C 94 % 0 lf 1009,1 hPa 0,0 l/m 0 min 0 min 0 W/m 24,8 km/h (4 Bft) 100,00 %
04.02.2018 00:40 1,3 C 1,1 C 0,6 C 94 % 0 lf 1009,2 hPa 0,0 l/m 0 min 0 min 0 W/m 29,3 km/h (5 Bft) 97,87 %
04.02.2018 00:42 1,3 C 1,1 C 0,6 C 94 % 0 lf 1009,1 hPa 0,0 l/m 0 min 0 min 0 W/m 27,0 km/h (4 Bft) 100,00 %
04.02.2018 00:44 1,2 C 1,1 C 0,6 C 94 % 0 lf 1009,2 hPa 0,0 l/m 0 min 0 min 0 W/m 24,8 km/h (4 Bft) 97,87 %
04.02.2018 00:46 1,2 C 1,1 C 0,6 C 94 % 0 lf 1009,2 hPa 0,0 l/m 0 min 0 min 0 W/m 22,5 km/h (4 Bft) 95,74 %
04.02.2018 00:48 1,2 C 1,1 C 0,0 C 94 % 0 lf 1009,2 hPa 0,0 l/m 0 min 0 min 0 W/m 24,8 km/h (4 Bft) 97,83 %
04.02.2018 00:50 1,1 C 1,1 C 0,0 C 94 % 0 lf 1009,3 hPa 0,0 l/m 0 min 0 min 0 W/m 27,0 km/h (4 Bft) 98,33 %
04.02.2018 00:52 1,1 C 1,1 C 0,0 C 94 % 0 lf 1009,3 hPa 0,0 l/m 0 min 0 min 0 W/m 29,3 km/h (5 Bft) 95,65 %
04.02.2018 00:54 1,1 C 1,1 C 0,0 C 94 % 0 lf 1009,4 hPa 0,0 l/m 0 min 0 min 0 W/m 27,0 km/h (4 Bft) 98,33 %
04.02.2018 00:56 1,0 C 1,1 C 0,0 C 94 % 0 lf 1009,4 hPa 0,0 l/m 0 min 0 min 0 W/m 24,8 km/h (4 Bft) 95,74 %
04.02.2018 00:58 1,0 C 1,1 C 0,0 C 94 % 0 lf 1009,4 hPa 0,0 l/m 0 min 0 min 0 W/m 22,5 km/h (4 Bft) 97,87 %
04.02.2018 01:00 0,9 C 0,6 C 0,0 C 94 % 1 lf 1009,3 hPa 0,0 l/m 0 min 0 min 0 W/m 27,0 km/h (4 Bft) 97,87 %
04.02.2018 01:02 0,9 C 0,6 C 0,0 C 94 % 1 lf 1009,5 hPa 0,0 l/m 0 min 0 min 0 W/m 24,8 km/h (4 Bft) 95,74 %
04.02.2018 01:04 0,9 C 0,6 C 0,0 C 94 % 2 lf 1009,5 hPa 0,0 l/m 0 min 0 min 0 W/m 22,5 km/h (4 Bft) 95,65 %
04.02.2018 01:06 0,9 C 0,6 C 0,0 C 94 % 2 lf 1009,6 hPa 0,0 l/m 0 min 0 min 0 W/m 22,5 km/h (4 Bft) 97,87 %
04.02.2018 01:08 0,9 C 0,6 C 0,0 C 94 % 2 lf 1009,7 hPa 0,0 l/m 0 min 0 min 0 W/m 27,0 km/h (4 Bft) 95,74 %
04.02.2018 01:10 0,9 C 0,6 C 0,0 C 94 % 3 lf 1009,8 hPa 0,0 l/m 0 min 0 min 0 W/m 27,0 km/h (4 Bft) 97,87 %
04.02.2018 01:12 0,9 C 0,6 C 0,0 C 94 % 5 lf 1009,8 hPa 0,0 l/m 0 min 0 min 0 W/m 20,3 km/h (4 Bft) 93,62 %
04.02.2018 01:14 0,9 C 0,6 C 0,0 C 94 % 10 lf 1009,8 hPa 0,0 l/m 0 min 0 min 0 W/m 20,3 km/h (4 Bft) 95,74 %
04.02.2018 01:16 0,9 C 0,6 C 0,0 C 94 % 13 lf 1009,8 hPa 0,0 l/m 0 min 0 min 0 W/m 20,3 km/h (4 Bft) 95,65 %
04.02.2018 01:18 0,8 C 0,6 C -0,6 C 94 % 14 lf 1009,8 hPa 0,0 l/m 0 min 0 min 0 W/m 24,8 km/h (4 Bft) 95,74 %
04.02.2018 01:20 0,8 C 0,6 C -0,6 C 94 % 15 lf 1009,8 hPa 0,0 l/m 0 min 0 min 0 W/m 22,5 km/h (4 Bft) 93,62 %
04.02.2018 01:22 0,8 C 0,6 C -0,6 C 94 % 15 lf 1009,9 hPa 0,0 l/m 0 min 0 min 0 W/m 24,8 km/h (4 Bft) 91,49 %
04.02.2018 01:24 0,8 C 0,6 C -0,6 C 94 % 15 lf 1009,9 hPa 0,0 l/m 0 min 0 min 0 W/m 22,5 km/h (4 Bft) 91,49 %
04.02.2018 01:26 0,7 C 0,6 C -0,6 C 94 % 15 lf 1009,9 hPa 0,0 l/m 0 min 0 min 0 W/m 27,0 km/h (4 Bft) 89,36 %
04.02.2018 01:28 0,7 C 0,6 C -0,6 C 94 % 15 lf 1009,9 hPa 0,0 l/m 0 min 0 min 0 W/m 22,5 km/h (4 Bft) 93,48 %
04.02.2018 01:30 0,7 C 0,6 C -1,1 C 94 % 15 lf 1009,9 hPa 0,0 l/m 0 min 0 min 0 W/m 20,3 km/h (4 Bft) 91,49 %
04.02.2018 01:32 0,6 C 0,6 C -1,1 C 94 % 15 lf 1010,0 hPa 0,0 l/m 0 min 0 min 0 W/m 22,5 km/h (4 Bft) 91,49 %
04.02.2018 01:34 0,6 C 0,6 C -1,1 C 94 % 15 lf 1010,1 hPa 0,0 l/m 0 min 0 min 0 W/m 20,3 km/h (4 Bft) 93,62 %
04.02.2018 01:38 0,5 C 0,0 C -1,1 C 94 % 15 lf 1010,2 hPa 0,0 l/m 0 min 0 min 0 W/m 29,3 km/h (5 Bft) 92,55 %
04.02.2018 01:40 0,5 C 0,0 C -1,1 C 94 % 15 lf 1010,2 hPa 0,0 l/m 0 min 0 min 0 W/m 22,5 km/h (4 Bft) 89,13 %
04.02.2018 01:42 0,5 C 0,0 C -1,1 C 94 % 15 lf 1010,2 hPa 0,0 l/m 0 min 2 min 0 W/m 20,3 km/h (4 Bft) 93,62 %
04.02.2018 01:44 0,4 C 0,0 C -1,1 C 94 % 15 lf 1010,3 hPa 0,0 l/m 0 min 0 min 0 W/m 27,0 km/h (4 Bft) 91,49 %
04.02.2018 01:46 0,4 C 0,0 C -1,1 C 94 % 15 lf 1010,3 hPa 0,0 l/m 0 min 2 min 0 W/m 22,5 km/h (4 Bft) 93,62 %
04.02.2018 01:48 0,3 C 0,0 C -1,1 C 94 % 15 lf 1010,3 hPa 0,0 l/m 0 min 0 min 0 W/m 22,5 km/h (4 Bft) 93,62 %
04.02.2018 01:50 0,3 C 0,0 C -1,1 C 94 % 15 lf 1010,4 hPa 0,0 l/m 0 min 0 min 0 W/m 18,0 km/h (3 Bft) 91,49 %
04.02.2018 01:52 0,3 C 0,0 C -1,1 C 94 % 15 lf 1010,4 hPa 0,0 l/m 0 min 0 min 0 W/m 18,0 km/h (3 Bft) 95,65 %
04.02.2018 01:54 0,3 C 0,0 C -1,1 C 94 % 15 lf 1010,4 hPa 0,0 l/m 0 min 0 min 0 W/m 24,8 km/h (4 Bft) 93,62 %
04.02.2018 01:56 0,2 C 0,0 C -1,1 C 94 % 15 lf 1010,4 hPa 0,0 l/m 0 min 0 min 0 W/m 24,8 km/h (4 Bft) 93,62 %
04.02.2018 01:58 0,2 C 0,0 C -1,1 C 94 % 15 lf 1010,5 hPa 0,0 l/m 0 min 0 min 0 W/m 20,3 km/h (4 Bft) 97,87 %
04.02.2018 02:00 0,2 C 0,0 C -1,1 C 94 % 15 lf 1010,5 hPa 0,0 l/m 0 min 0 min 0 W/m 27,0 km/h (4 Bft) 95,74 %
04.02.2018 02:02 0,2 C 0,0 C -1,1 C 94 % 15 lf 1010,6 hPa 0,0 l/m 0 min 0 min 0 W/m 20,3 km/h (4 Bft) 97,87 %
04.02.2018 02:04 0,2 C 0,0 C -1,1 C 94 % 15 lf 1010,6 hPa 0,0 l/m 0 min 0 min 0 W/m 22,5 km/h (4 Bft) 100,00 %
04.02.2018 02:06 0,2 C 0,0 C -1,1 C 94 % 15 lf 1010,6 hPa 0,0 l/m 0 min 0 min 0 W/m 20,3 km/h (4 Bft) 100,00 %
04.02.2018 02:08 0,1 C 0,0 C -1,1 C 94 % 15 lf 1010,6 hPa 0,0 l/m 0 min 0 min 0 W/m 22,5 km/h (4 Bft) 95,65 %
04.02.2018 02:10 0,1 C 0,0 C -1,1 C 94 % 15 lf 1010,7 hPa 0,0 l/m 0 min 0 min 0 W/m 33,8 km/h (5 Bft) 100,00 %
04.02.2018 02:12 0,1 C 0,0 C -1,1 C 94 % 15 lf 1010,7 hPa 0,0 l/m 0 min 0 min 0 W/m 29,3 km/h (5 Bft) 95,74 %
04.02.2018 02:14 0,1 C 0,0 C -1,1 C 94 % 15 lf 1010,7 hPa 0,0 l/m 0 min 0 min 0 W/m 20,3 km/h (4 Bft) 97,14 %
04.02.2018 02:16 0,1 C 0,0 C -1,1 C 94 % 15 lf 1010,9 hPa 0,0 l/m 0 min 0 min 0 W/m 20,3 km/h (4 Bft) 95,74 %
04.02.2018 02:18 0,1 C 0,0 C -1,1 C 94 % 15 lf 1010,9 hPa 0,0 l/m 0 min 0 min 0 W/m 22,5 km/h (4 Bft) 91,49 %
04.02.2018 02:20 0,1 C 0,0 C -1,1 C 94 % 15 lf 1010,8 hPa 0,0 l/m 0 min 0 min 0 W/m 20,3 km/h (4 Bft) 94,83 %
04.02.2018 02:22 0,1 C 0,0 C -1,1 C 94 % 15 lf 1010,9 hPa 0,0 l/m 0 min 0 min 0 W/m 24,8 km/h (4 Bft) 97,87 %
04.02.2018 02:24 0,1 C 0,0 C -1,1 C 94 % 15 lf 1010,9 hPa 0,0 l/m 0 min 0 min 0 W/m 22,5 km/h (4 Bft) 97,87 %
04.02.2018 02:26 0,1 C 0,0 C -1,1 C 94 % 15 lf 1011,0 hPa 0,0 l/m 0 min 0 min 0 W/m 22,5 km/h (4 Bft) 95,65 %
04.02.2018 02:28 0,1 C 0,0 C -1,1 C 94 % 15 lf 1011,0 hPa 0,0 l/m 0 min 0 min 0 W/m 24,8 km/h (4 Bft) 94,44 %
04.02.2018 02:30 0,1 C 0,0 C -1,1 C 94 % 15 lf 1011,0 hPa 0,0 l/m 0 min 0 min 0 W/m 24,8 km/h (4 Bft) 97,83 %
04.02.2018 02:32 0,1 C 0,0 C -1,1 C 94 % 15 lf 1011,0 hPa 0,0 l/m 0 min 0 min 0 W/m 20,3 km/h (4 Bft) 96,61 %
04.02.2018 02:34 0,1 C 0,0 C -1,1 C 94 % 15 lf 1011,1 hPa 0,0 l/m 0 min 0 min 0 W/m 20,3 km/h (4 Bft) 97,14 %
04.02.2018 02:36 0,1 C 0,0 C -1,1 C 94 % 15 lf 1011,1 hPa 0,0 l/m 0 min 0 min 0 W/m 24,8 km/h (4 Bft) 95,74 %
04.02.2018 02:38 0,1 C 0,0 C -1,1 C 94 % 14 lf 1011,1 hPa 0,0 l/m 0 min 0 min 0 W/m 22,5 km/h (4 Bft) 96,55 %
04.02.2018 02:40 0,1 C 0,0 C -1,1 C 94 % 12 lf 1011,1 hPa 0,0 l/m 0 min 0 min 0 W/m 27,0 km/h (4 Bft) 97,22 %
04.02.2018 02:42 0,1 C 0,0 C -1,1 C 94 % 10 lf 1011,1 hPa 0,0 l/m 0 min 0 min 0 W/m 27,0 km/h (4 Bft) 95,65 %
04.02.2018 02:44 0,1 C 0,0 C -1,1 C 94 % 8 lf 1011,2 hPa 0,0 l/m 0 min 0 min 0 W/m 20,3 km/h (4 Bft) 98,31 %
04.02.2018 02:46 0,1 C 0,0 C -1,1 C 93 % 7 lf 1011,2 hPa 0,0 l/m 0 min 0 min 0 W/m 20,3 km/h (4 Bft) 97,14 %
04.02.2018 02:48 0,1 C 0,0 C -1,1 C 93 % 4 lf 1011,2 hPa 0,0 l/m 0 min 0 min 0 W/m 24,8 km/h (4 Bft) 97,87 %
04.02.2018 02:50 0,1 C 0,0 C -1,1 C 93 % 3 lf 1011,3 hPa 0,0 l/m 0 min 0 min 0 W/m 22,5 km/h (4 Bft) 98,28 %
04.02.2018 02:52 0,1 C 0,0 C -1,1 C 93 % 2 lf 1011,3 hPa 0,0 l/m 0 min 0 min 0 W/m 24,8 km/h (4 Bft) 95,74 %
04.02.2018 02:54 0,1 C 0,0 C -1,1 C 93 % 2 lf 1011,2 hPa 0,0 l/m 0 min 0 min 0 W/m 20,3 km/h (4 Bft) 97,14 %
04.02.2018 02:56 0,1 C 0,0 C -1,1 C 93 % 2 lf 1011,3 hPa 0,0 l/m 0 min 0 min 0 W/m 27,0 km/h (4 Bft) 95,74 %
04.02.2018 02:58 0,1 C 0,0 C -1,1 C 92 % 2 lf 1011,4 hPa 0,0 l/m 0 min 0 min 0 W/m 24,8 km/h (4 Bft) 97,87 %
04.02.2018 03:00 0,1 C 0,0 C -1,1 C 92 % 1 lf 1011,3 hPa 0,0 l/m 0 min 0 min 0 W/m 24,8 km/h (4 Bft) 98,31 %
04.02.2018 03:02 0,0 C 0,0 C -1,1 C 92 % 1 lf 1011,4 hPa 0,0 l/m 0 min 0 min 0 W/m 24,8 km/h (4 Bft) 97,83 %
04.02.2018 03:04 0,0 C 0,0 C -1,1 C 92 % 1 lf 1011,4 hPa 0,0 l/m 0 min 0 min 0 W/m 24,8 km/h (4 Bft) 100,00 %
04.02.2018 03:06 0,0 C 0,0 C -1,1 C 92 % 1 lf 1011,4 hPa 0,0 l/m 0 min 0 min 0 W/m 24,8 km/h (4 Bft) 95,74 %
04.02.2018 03:08 0,0 C 0,0 C -1,1 C 91 % 1 lf 1011,4 hPa 0,0 l/m 0 min 0 min 0 W/m 22,5 km/h (4 Bft) 97,87 %
04.02.2018 03:10 0,0 C 0,0 C -1,1 C 91 % 1 lf 1011,4 hPa 0,0 l/m 0 min 0 min 0 W/m 22,5 km/h (4 Bft) 100,00 %
04.02.2018 03:12 0,0 C 0,0 C -1,1 C 91 % 1 lf 1011,5 hPa 0,0 l/m 0 min 0 min 0 W/m 22,5 km/h (4 Bft) 98,31 %
04.02.2018 03:14 0,0 C 0,0 C -1,1 C 91 % 0 lf 1011,5 hPa 0,0 l/m 0 min 2 min 0 W/m 29,3 km/h (5 Bft) 100,00 %
04.02.2018 03:16 0,0 C 0,0 C -1,1 C 91 % 1 lf 1011,5 hPa 0,0 l/m 0 min 2 min 0 W/m 29,3 km/h (5 Bft) 97,87 %
04.02.2018 03:18 0,0 C 0,0 C -1,1 C 91 % 1 lf 1011,5 hPa 0,0 l/m 0 min 0 min 0 W/m 27,0 km/h (4 Bft) 97,14 %
04.02.2018 03:20 0,0 C 0,0 C -1,1 C 90 % 0 lf 1011,5 hPa 0,0 l/m 0 min 0 min 0 W/m 20,3 km/h (4 Bft) 96,61 %
04.02.2018 03:22 0,0 C 0,0 C -1,1 C 90 % 0 lf 1011,6 hPa 0,0 l/m 0 min 0 min 0 W/m 18,0 km/h (3 Bft) 95,74 %
04.02.2018 03:24 0,0 C 0,0 C -1,1 C 90 % 0 lf 1011,6 hPa 0,0 l/m 0 min 0 min 0 W/m 18,0 km/h (3 Bft) 97,14 %
04.02.2018 03:26 0,0 C 0,0 C -1,1 C 90 % 0 lf 1011,6 hPa 0,0 l/m 0 min 0 min 0 W/m 22,5 km/h (4 Bft) 97,87 %
04.02.2018 03:28 0,0 C 0,0 C -1,1 C 90 % 0 lf 1011,6 hPa 0,0 l/m 0 min 0 min 0 W/m 22,5 km/h (4 Bft) 96,55 %
04.02.2018 03:30 0,0 C 0,0 C -1,1 C 90 % 0 lf 1011,7 hPa 0,0 l/m 0 min 0 min 0 W/m 29,3 km/h (5 Bft) 95,74 %
04.02.2018 03:32 0,0 C 0,0 C -1,1 C 90 % 0 lf 1011,7 hPa 0,0 l/m 0 min 0 min 0 W/m 20,3 km/h (4 Bft) 97,87 %
04.02.2018 03:34 0,0 C 0,0 C -1,1 C 90 % 0 lf 1011,8 hPa 0,0 l/m 0 min 0 min 0 W/m 22,5 km/h (4 Bft) 97,14 %
04.02.2018 03:36 0,0 C 0,0 C -1,1 C 90 % 0 lf 1011,8 hPa 0,0 l/m 0 min 0 min 0 W/m 18,0 km/h (3 Bft) 97,87 %
04.02.2018 03:38 0,0 C 0,0 C -1,1 C 90 % 0 lf 1011,8 hPa 0,0 l/m 0 min 0 min 0 W/m 18,0 km/h (3 Bft) 93,62 %
04.02.2018 03:40 0,0 C 0,0 C -1,1 C 89 % 0 lf 1011,8 hPa 0,0 l/m 0 min 0 min 0 W/m 20,3 km/h (4 Bft) 95,65 %
04.02.2018 03:42 0,0 C 0,0 C -1,1 C 89 % 0 lf 1011,9 hPa 0,0 l/m 0 min 0 min 0 W/m 29,3 km/h (5 Bft) 94,92 %
04.02.2018 03:44 -0,1 C 0,0 C -1,1 C 89 % 0 lf 1011,9 hPa 0,0 l/m 0 min 0 min 0 W/m 27,0 km/h (4 Bft) 97,87 %
04.02.2018 03:46 -0,1 C 0,0 C -1,1 C 89 % 0 lf 1011,9 hPa 0,0 l/m 0 min 0 min 0 W/m 24,8 km/h (4 Bft) 94,29 %
04.02.2018 03:48 -0,1 C 0,0 C -1,1 C 89 % 0 lf 1011,9 hPa 0,0 l/m 0 min 0 min 0 W/m 24,8 km/h (4 Bft) 97,87 %
04.02.2018 03:50 -0,1 C 0,0 C -1,1 C 89 % 0 lf 1012,0 hPa 0,0 l/m 0 min 0 min 0 W/m 27,0 km/h (4 Bft) 96,55 %
04.02.2018 03:52 -0,1 C 0,0 C -1,1 C 89 % 0 lf 1012,0 hPa 0,0 l/m 0 min 0 min 0 W/m 20,3 km/h (4 Bft) 97,87 %
04.02.2018 03:54 -0,1 C 0,0 C -1,1 C 89 % 0 lf 1012,0 hPa 0,0 l/m 0 min 0 min 0 W/m 22,5 km/h (4 Bft) 94,29 %
04.02.2018 03:56 -0,1 C 0,0 C -1,1 C 89 % 0 lf 1012,1 hPa 0,0 l/m 0 min 0 min 0 W/m 22,5 km/h (4 Bft) 98,31 %
04.02.2018 03:58 -0,1 C 0,0 C -1,1 C 88 % 0 lf 1012,1 hPa 0,0 l/m 0 min 0 min 0 W/m 18,0 km/h (3 Bft) 100,00 %
04.02.2018 04:00 -0,1 C 0,0 C -1,1 C 88 % 0 lf 1012,1 hPa 0,0 l/m 0 min 0 min 0 W/m 24,8 km/h (4 Bft) 100,00 %
04.02.2018 04:05 0,0 C 0,0 C -1,1 C 88 % 0 lf 1012,3 hPa 0,0 l/m 0 min 0 min 0 W/m 20,3 km/h (4 Bft) 100,00 %
04.02.2018 04:06 0,0 C 0,0 C -1,1 C 88 % 0 lf 1012,3 hPa 0,0 l/m 0 min 0 min 0 W/m 15,8 km/h (3 Bft) 100,00 %
04.02.2018 04:08 -0,1 C 0,0 C -1,1 C 88 % 0 lf 1012,3 hPa 0,0 l/m 0 min 0 min 0 W/m 15,8 km/h (3 Bft) 97,14 %
04.02.2018 04:10 -0,1 C 0,0 C -1,1 C 88 % 0 lf 1012,3 hPa 0,0 l/m 0 min 0 min 0 W/m 15,8 km/h (3 Bft) 97,87 %
04.02.2018 04:12 -0,1 C 0,0 C -1,1 C 89 % 0 lf 1012,3 hPa 0,0 l/m 0 min 0 min 0 W/m 22,5 km/h (4 Bft) 97,87 %
04.02.2018 04:14 0,0 C 0,0 C -1,1 C 89 % 0 lf 1012,3 hPa 0,0 l/m 0 min 0 min 0 W/m 24,8 km/h (4 Bft) 97,87 %
04.02.2018 04:16 -0,1 C 0,0 C -1,1 C 89 % 0 lf 1012,4 hPa 0,0 l/m 0 min 0 min 0 W/m 18,0 km/h (3 Bft) 97,83 %
04.02.2018 04:18 -0,1 C 0,0 C -1,1 C 89 % 0 lf 1012,4 hPa 0,0 l/m 0 min 0 min 0 W/m 13,5 km/h (3 Bft) 97,87 %
04.02.2018 04:20 -0,1 C 0,0 C -1,1 C 89 % 0 lf 1012,5 hPa 0,0 l/m 0 min 0 min 0 W/m 22,5 km/h (4 Bft) 96,61 %
04.02.2018 04:22 -0,1 C 0,0 C -1,1 C 89 % 0 lf 1012,5 hPa 0,0 l/m 0 min 0 min 0 W/m 22,5 km/h (4 Bft) 100,00 %
04.02.2018 04:24 -0,1 C 0,0 C -1,1 C 89 % 0 lf 1012,5 hPa 0,0 l/m 0 min 0 min 0 W/m 20,3 km/h (4 Bft) 95,74 %
04.02.2018 04:26 -0,1 C 0,0 C -1,1 C 89 % 0 lf 1012,5 hPa 0,0 l/m 0 min 0 min 0 W/m 24,8 km/h (4 Bft) 97,87 %
04.02.2018 04:28 -0,1 C 0,0 C -1,1 C 89 % 0 lf 1012,5 hPa 0,0 l/m 0 min 0 min 0 W/m 22,5 km/h (4 Bft) 97,83 %
04.02.2018 04:30 -0,1 C 0,0 C -1,1 C 89 % 0 lf 1012,6 hPa 0,0 l/m 0 min 0 min 0 W/m 29,3 km/h (5 Bft) 97,87 %
04.02.2018 04:32 -0,1 C 0,0 C -1,1 C 88 % 0 lf 1012,6 hPa 0,0 l/m 0 min 0 min 0 W/m 31,5 km/h (5 Bft) 95,74 %
04.02.2018 04:34 -0,2 C 0,0 C -1,1 C 88 % 0 lf 1012,7 hPa 0,0 l/m 0 min 0 min 0 W/m 29,3 km/h (5 Bft) 97,87 %
04.02.2018 04:38 -0,2 C 0,0 C -1,1 C 88 % 0 lf 1012,8 hPa 0,0 l/m 0 min 0 min 0 W/m 29,3 km/h (5 Bft) 95,00 %
04.02.2018 04:40 -0,2 C 0,0 C -1,1 C 88 % 0 lf 1012,9 hPa 0,0 l/m 0 min 0 min 0 W/m 33,8 km/h (5 Bft) 93,62 %
04.02.2018 04:42 -0,2 C 0,0 C -1,1 C 88 % 0 lf 1012,9 hPa 0,0 l/m 0 min 0 min 0 W/m 27,0 km/h (4 Bft) 95,65 %
04.02.2018 04:44 -0,3 C 0,0 C -1,1 C 87 % 0 lf 1012,9 hPa 0,0 l/m 0 min 0 min 0 W/m 31,5 km/h (5 Bft) 95,74 %
04.02.2018 04:46 -0,3 C 0,0 C -1,1 C 87 % 0 lf 1012,9 hPa 0,0 l/m 0 min 0 min 0 W/m 24,8 km/h (4 Bft) 95,74 %
04.02.2018 04:48 -0,3 C 0,0 C -1,1 C 87 % 0 lf 1013,0 hPa 0,0 l/m 0 min 0 min 0 W/m 22,5 km/h (4 Bft) 93,62 %
04.02.2018 04:50 -0,3 C -0,6 C -1,1 C 87 % 0 lf 1013,1 hPa 0,0 l/m 0 min 0 min 0 W/m 18,0 km/h (3 Bft) 96,61 %
04.02.2018 04:52 -0,3 C -0,6 C -1,1 C 87 % 0 lf 1013,1 hPa 0,0 l/m 0 min 0 min 0 W/m 15,8 km/h (3 Bft) 94,29 %
04.02.2018 04:54 -0,3 C -0,6 C -1,1 C 87 % 0 lf 1013,1 hPa 0,0 l/m 0 min 0 min 0 W/m 20,3 km/h (4 Bft) 91,30 %
04.02.2018 04:56 -0,3 C -0,6 C -1,1 C 86 % 0 lf 1013,2 hPa 0,0 l/m 0 min 0 min 0 W/m 27,0 km/h (4 Bft) 93,62 %
04.02.2018 04:58 -0,3 C -0,6 C -1,1 C 87 % 0 lf 1013,2 hPa 0,0 l/m 0 min 0 min 0 W/m 22,5 km/h (4 Bft) 93,62 %
04.02.2018 05:00 -0,3 C -0,6 C -1,1 C 87 % 0 lf 1013,3 hPa 0,0 l/m 0 min 0 min 0 W/m 24,8 km/h (4 Bft) 95,74 %
04.02.2018 05:02 -0,3 C -0,6 C -1,1 C 86 % 0 lf 1013,3 hPa 0,0 l/m 0 min 0 min 0 W/m 24,8 km/h (4 Bft) 93,62 %
04.02.2018 05:04 -0,3 C -0,6 C -1,1 C 86 % 0 lf 1013,4 hPa 0,0 l/m 0 min 0 min 0 W/m 31,5 km/h (5 Bft) 93,62 %
04.02.2018 05:06 -0,3 C -0,6 C -1,1 C 86 % 0 lf 1013,4 hPa 0,0 l/m 0 min 0 min 0 W/m 27,0 km/h (4 Bft) 91,30 %
04.02.2018 05:08 -0,3 C -0,6 C -1,1 C 86 % 0 lf 1013,4 hPa 0,0 l/m 0 min 0 min 0 W/m 29,3 km/h (5 Bft) 95,74 %
04.02.2018 05:10 -0,3 C -0,6 C -1,1 C 86 % 0 lf 1013,5 hPa 0,0 l/m 0 min 0 min 0 W/m 24,8 km/h (4 Bft) 93,62 %
04.02.2018 05:12 -0,4 C -0,6 C -1,1 C 86 % 0 lf 1013,5 hPa 0,0 l/m 0 min 0 min 0 W/m 22,5 km/h (4 Bft) 95,74 %
04.02.2018 05:14 -0,4 C -0,6 C -1,1 C 86 % 0 lf 1013,6 hPa 0,0 l/m 0 min 0 min 0 W/m 31,5 km/h (5 Bft) 93,62 %
04.02.2018 05:16 -0,4 C -0,6 C -1,1 C 86 % 0 lf 1013,6 hPa 0,0 l/m 0 min 0 min 0 W/m 18,0 km/h (3 Bft) 91,49 %
04.02.2018 05:18 -0,4 C -0,6 C -1,1 C 86 % 0 lf 1013,6 hPa 0,0 l/m 0 min 0 min 0 W/m 20,3 km/h (4 Bft) 89,13 %
04.02.2018 05:20 -0,4 C -0,6 C -1,1 C 86 % 0 lf 1013,6 hPa 0,0 l/m 0 min 0 min 0 W/m 24,8 km/h (4 Bft) 93,22 %
04.02.2018 05:22 -0,4 C -0,6 C -1,1 C 86 % 0 lf 1013,6 hPa 0,0 l/m 0 min 0 min 0 W/m 24,8 km/h (4 Bft) 94,29 %
04.02.2018 05:24 -0,4 C -0,6 C -1,1 C 86 % 0 lf 1013,6 hPa 0,0 l/m 0 min 0 min 0 W/m 29,3 km/h (5 Bft) 91,49 %
04.02.2018 05:26 -0,4 C -0,6 C -1,1 C 86 % 0 lf 1013,7 hPa 0,0 l/m 0 min 0 min 0 W/m 22,5 km/h (4 Bft) 93,62 %
04.02.2018 05:28 -0,4 C -0,6 C -1,1 C 86 % 0 lf 1013,8 hPa 0,0 l/m 0 min 0 min 0 W/m 24,8 km/h (4 Bft) 89,36 %
04.02.2018 05:30 -0,4 C -0,6 C -1,1 C 86 % 0 lf 1013,8 hPa 0,0 l/m 0 min 0 min 0 W/m 22,5 km/h (4 Bft) 93,48 %
04.02.2018 05:32 -0,4 C -0,6 C -1,1 C 86 % 0 lf 1013,8 hPa 0,0 l/m 0 min 0 min 0 W/m 20,3 km/h (4 Bft) 91,49 %
04.02.2018 05:34 -0,4 C -0,6 C -1,1 C 86 % 0 lf 1013,9 hPa 0,0 l/m 0 min 0 min 0 W/m 20,3 km/h (4 Bft) 93,62 %
04.02.2018 05:35 -0,4 C -0,6 C -1,1 C 86 % 0 lf 1013,9 hPa 0,0 l/m 0 min 0 min 0 W/m 20,3 km/h (4 Bft) 94,74 %
04.02.2018 05:40 -0,4 C -0,6 C -1,1 C 86 % 0 lf 1014,0 hPa 0,0 l/m 0 min 0 min 0 W/m 18,0 km/h (3 Bft) 100,00 %
04.02.2018 05:42 -0,4 C -0,6 C -1,1 C 86 % 0 lf 1014,1 hPa 0,0 l/m 0 min 0 min 0 W/m 22,5 km/h (4 Bft) 100,00 %
04.02.2018 05:44 -0,5 C -0,6 C -1,1 C 86 % 0 lf 1014,0 hPa 0,0 l/m 0 min 0 min 0 W/m 24,8 km/h (4 Bft) 100,00 %
04.02.2018 05:46 -0,5 C -0,6 C -1,1 C 86 % 0 lf 1014,1 hPa 0,0 l/m 0 min 0 min 0 W/m 27,0 km/h (4 Bft) 95,74 %
04.02.2018 05:48 -0,5 C -0,6 C -1,1 C 86 % 0 lf 1014,2 hPa 0,0 l/m 0 min 0 min 0 W/m 24,8 km/h (4 Bft) 94,44 %
04.02.2018 05:50 -0,5 C -0,6 C -1,1 C 86 % 0 lf 1014,2 hPa 0,0 l/m 0 min 0 min 0 W/m 24,8 km/h (4 Bft) 100,00 %
04.02.2018 05:52 -0,5 C -0,6 C -1,1 C 85 % 0 lf 1014,1 hPa 0,0 l/m 0 min 0 min 0 W/m 24,8 km/h (4 Bft) 100,00 %
04.02.2018 05:54 -0,6 C -0,6 C -1,7 C 85 % 0 lf 1014,2 hPa 0,0 l/m 0 min 0 min 0 W/m 18,0 km/h (3 Bft) 100,00 %
04.02.2018 05:56 -0,5 C -0,6 C -1,7 C 85 % 0 lf 1014,1 hPa 0,0 l/m 0 min 0 min 0 W/m 29,3 km/h (5 Bft) 98,28 %
04.02.2018 05:58 -0,6 C -0,6 C -1,7 C 85 % 0 lf 1014,2 hPa 0,0 l/m 0 min 0 min 0 W/m 20,3 km/h (4 Bft) 100,00 %
04.02.2018 06:00 -0,6 C -0,6 C -1,7 C 85 % 0 lf 1014,2 hPa 0,0 l/m 0 min 0 min 0 W/m 31,5 km/h (5 Bft) 100,00 %
04.02.2018 06:02 -0,6 C -0,6 C -1,7 C 84 % 0 lf 1014,3 hPa 0,0 l/m 0 min 0 min 0 W/m 24,8 km/h (4 Bft) 100,00 %
04.02.2018 06:04 -0,6 C -0,6 C -1,7 C 83 % 0 lf 1014,3 hPa 0,0 l/m 0 min 0 min 0 W/m 27,0 km/h (4 Bft) 100,00 %
04.02.2018 06:06 -0,6 C -0,6 C -1,7 C 83 % 0 lf 1014,3 hPa 0,0 l/m 0 min 0 min 0 W/m 24,8 km/h (4 Bft) 96,43 %
04.02.2018 06:08 -0,6 C -0,6 C -1,7 C 83 % 0 lf 1014,3 hPa 0,0 l/m 0 min 0 min 0 W/m 29,3 km/h (5 Bft) 97,30 %
04.02.2018 06:10 -0,6 C -0,6 C -1,7 C 82 % 0 lf 1014,3 hPa 0,0 l/m 0 min 0 min 0 W/m 22,5 km/h (4 Bft) 100,00 %
04.02.2018 06:12 -0,6 C -0,6 C -1,7 C 82 % 0 lf 1014,3 hPa 0,0 l/m 0 min 0 min 0 W/m 22,5 km/h (4 Bft) 100,00 %
04.02.2018 06:14 -0,6 C -0,6 C -1,7 C 81 % 0 lf 1014,4 hPa 0,0 l/m 0 min 0 min 0 W/m 24,8 km/h (4 Bft) 100,00 %
04.02.2018 06:16 -0,6 C -0,6 C -1,7 C 81 % 0 lf 1014,4 hPa 0,0 l/m 0 min 0 min 0 W/m 27,0 km/h (4 Bft) 97,30 %
04.02.2018 06:18 -0,7 C -0,6 C -1,7 C 80 % 0 lf 1014,5 hPa 0,0 l/m 0 min 0 min 0 W/m 27,0 km/h (4 Bft) 97,87 %
04.02.2018 06:20 -0,7 C -0,6 C -1,7 C 80 % 0 lf 1014,5 hPa 0,0 l/m 0 min 0 min 0 W/m 24,8 km/h (4 Bft) 98,15 %
04.02.2018 06:22 -0,7 C -0,6 C -1,7 C 80 % 0 lf 1014,6 hPa 0,0 l/m 0 min 0 min 0 W/m 22,5 km/h (4 Bft) 93,62 %
04.02.2018 06:24 -0,6 C -0,6 C -1,7 C 80 % 0 lf 1014,5 hPa 0,0 l/m 0 min 0 min 0 W/m 18,0 km/h (3 Bft) 97,87 %
04.02.2018 06:26 -0,6 C -0,6 C -1,7 C 80 % 0 lf 1014,6 hPa 0,0 l/m 0 min 0 min 0 W/m 20,3 km/h (4 Bft) 100,00 %
04.02.2018 06:28 -0,6 C -0,6 C -1,7 C 80 % 0 lf 1014,8 hPa 0,0 l/m 0 min 0 min 0 W/m 20,3 km/h (4 Bft) 100,00 %
04.02.2018 06:30 -0,6 C -0,6 C -1,7 C 80 % 0 lf 1014,7 hPa 0,0 l/m 0 min 0 min 0 W/m 22,5 km/h (4 Bft) 100,00 %
04.02.2018 06:32 -0,6 C -0,6 C -1,7 C 80 % 0 lf 1014,7 hPa 0,0 l/m 0 min 0 min 0 W/m 18,0 km/h (3 Bft) 97,87 %
04.02.2018 06:34 -0,6 C -0,6 C -1,7 C 80 % 0 lf 1014,8 hPa 0,0 l/m 0 min 0 min 0 W/m 18,0 km/h (3 Bft) 98,00 %
04.02.2018 06:36 -0,6 C -0,6 C -1,7 C 80 % 0 lf 1014,8 hPa 0,0 l/m 0 min 0 min 0 W/m 18,0 km/h (3 Bft) 100,00 %
04.02.2018 06:38 -0,6 C -0,6 C -1,7 C 80 % 0 lf 1014,8 hPa 0,0 l/m 0 min 0 min 0 W/m 15,8 km/h (3 Bft) 97,87 %
04.02.2018 06:40 -0,6 C -0,6 C -1,7 C 80 % 0 lf 1014,9 hPa 0,0 l/m 0 min 0 min 0 W/m 20,3 km/h (4 Bft) 100,00 %
04.02.2018 06:42 -0,6 C -0,6 C -1,7 C 80 % 0 lf 1014,9 hPa 0,0 l/m 0 min 0 min 0 W/m 18,0 km/h (3 Bft) 98,00 %
04.02.2018 06:44 -0,6 C -0,6 C -1,7 C 80 % 0 lf 1015,0 hPa 0,0 l/m 0 min 0 min 0 W/m 18,0 km/h (3 Bft) 100,00 %
04.02.2018 06:46 -0,6 C -0,6 C -1,7 C 80 % 0 lf 1015,0 hPa 0,0 l/m 0 min 0 min 0 W/m 18,0 km/h (3 Bft) 100,00 %
04.02.2018 06:48 -0,6 C -0,6 C -1,7 C 80 % 0 lf 1015,0 hPa 0,0 l/m 0 min 0 min 0 W/m 13,5 km/h (3 Bft) 100,00 %
04.02.2018 06:50 -0,6 C -0,6 C -1,7 C 80 % 0 lf 1015,0 hPa 0,0 l/m 0 min 0 min 0 W/m 15,8 km/h (3 Bft) 97,83 %
04.02.2018 06:52 -0,6 C -0,6 C -1,7 C 80 % 0 lf 1015,0 hPa 0,0 l/m 0 min 0 min 0 W/m 18,0 km/h (3 Bft) 100,00 %
04.02.2018 06:54 -0,6 C -0,6 C -1,7 C 80 % 0 lf 1015,0 hPa 0,0 l/m 0 min 0 min 0 W/m 15,8 km/h (3 Bft) 97,87 %
04.02.2018 06:56 -0,6 C -0,6 C -1,7 C 80 % 0 lf 1015,1 hPa 0,0 l/m 0 min 0 min 0 W/m 11,3 km/h (2 Bft) 100,00 %
04.02.2018 06:58 -0,6 C -0,6 C -1,7 C 80 % 0 lf 1015,0 hPa 0,0 l/m 0 min 0 min 0 W/m 15,8 km/h (3 Bft) 97,87 %
04.02.2018 07:00 -0,6 C -0,6 C -1,7 C 80 % 0 lf 1015,1 hPa 0,0 l/m 0 min 0 min 0 W/m 15,8 km/h (3 Bft) 95,65 %
04.02.2018 07:02 -0,6 C -0,6 C -1,7 C 80 % 0 lf 1015,1 hPa 0,0 l/m 0 min 0 min 0 W/m 15,8 km/h (3 Bft) 95,74 %
04.02.2018 07:04 -0,6 C -0,6 C -1,7 C 80 % 0 lf 1015,1 hPa 0,0 l/m 0 min 0 min 0 W/m 15,8 km/h (3 Bft) 97,87 %
04.02.2018 07:06 -0,6 C -0,6 C -1,7 C 80 % 0 lf 1015,2 hPa 0,0 l/m 0 min 0 min 0 W/m 18,0 km/h (3 Bft) 98,00 %
04.02.2018 07:08 -0,6 C -0,6 C -1,7 C 80 % 0 lf 1015,1 hPa 0,0 l/m 0 min 0 min 0 W/m 15,8 km/h (3 Bft) 97,30 %
04.02.2018 07:10 -0,6 C -0,6 C -1,7 C 80 % 0 lf 1015,2 hPa 0,0 l/m 0 min 0 min 0 W/m 13,5 km/h (3 Bft) 97,87 %
04.02.2018 07:12 -0,6 C -0,6 C -1,7 C 80 % 0 lf 1015,3 hPa 0,0 l/m 0 min 0 min 0 W/m 18,0 km/h (3 Bft) 91,49 %
04.02.2018 07:14 -0,6 C -0,6 C -1,7 C 80 % 0 lf 1015,3 hPa 0,0 l/m 0 min 0 min 0 W/m 13,5 km/h (3 Bft) 93,62 %
04.02.2018 07:16 -0,6 C -0,6 C -1,7 C 80 % 0 lf 1015,4 hPa 0,0 l/m 0 min 0 min 0 W/m 15,8 km/h (3 Bft) 90,57 %
04.02.2018 07:18 -0,6 C -0,6 C -1,7 C 81 % 0 lf 1015,4 hPa 0,0 l/m 0 min 0 min 0 W/m 11,3 km/h (2 Bft) 95,74 %
04.02.2018 07:20 -0,6 C -0,6 C -1,7 C 81 % 0 lf 1015,5 hPa 0,0 l/m 0 min 0 min 0 W/m 15,8 km/h (3 Bft) 94,00 %
04.02.2018 07:22 -0,5 C -0,6 C -1,7 C 81 % 0 lf 1015,5 hPa 0,0 l/m 0 min 0 min 0 W/m 15,8 km/h (3 Bft) 95,74 %
04.02.2018 07:24 -0,6 C -0,6 C -1,7 C 81 % 0 lf 1015,5 hPa 0,0 l/m 0 min 0 min 0 W/m 13,5 km/h (3 Bft) 97,83 %
04.02.2018 07:26 -0,5 C -0,6 C -1,7 C 81 % 0 lf 1015,6 hPa 0,0 l/m 0 min 0 min 0 W/m 9,0 km/h (2 Bft) 92,11 %
04.02.2018 07:28 -0,5 C -0,6 C -1,7 C 81 % 0 lf 1015,6 hPa 0,0 l/m 0 min 0 min 0 W/m 11,3 km/h (2 Bft) 95,65 %
04.02.2018 07:30 -0,5 C -0,6 C -1,7 C 81 % 0 lf 1015,6 hPa 0,0 l/m 0 min 0 min 0 W/m 13,5 km/h (3 Bft) 91,49 %
04.02.2018 07:32 -0,5 C -0,6 C -1,7 C 81 % 0 lf 1015,7 hPa 0,0 l/m 0 min 0 min 0 W/m 13,5 km/h (3 Bft) 91,49 %
04.02.2018 07:34 -0,5 C -0,6 C -1,7 C 81 % 0 lf 1015,7 hPa 0,0 l/m 0 min 0 min 0 W/m 13,5 km/h (3 Bft) 93,62 %
04.02.2018 07:36 -0,5 C -0,6 C -1,1 C 82 % 0 lf 1015,6 hPa 0,0 l/m 0 min 0 min 0 W/m 20,3 km/h (4 Bft) 93,62 %
04.02.2018 07:38 -0,5 C -0,6 C -1,1 C 82 % 0 lf 1015,7 hPa 0,0 l/m 0 min 0 min 0 W/m 20,3 km/h (4 Bft) 95,74 %
04.02.2018 07:40 -0,5 C -0,6 C -1,1 C 82 % 0 lf 1015,8 hPa 0,0 l/m 0 min 0 min 0 W/m 15,8 km/h (3 Bft) 93,48 %
04.02.2018 07:42 -0,5 C -0,6 C -1,1 C 81 % 0 lf 1015,8 hPa 0,0 l/m 0 min 0 min 0 W/m 20,3 km/h (4 Bft) 97,87 %
04.02.2018 07:44 -0,4 C -0,6 C -1,1 C 81 % 0 lf 1015,9 hPa 0,0 l/m 0 min 0 min 0 W/m 18,0 km/h (3 Bft) 97,87 %
04.02.2018 07:46 -0,4 C -0,6 C -1,1 C 81 % 0 lf 1015,9 hPa 0,0 l/m 0 min 0 min 0 W/m 13,5 km/h (3 Bft) 93,62 %
04.02.2018 07:48 -0,4 C -0,6 C -1,1 C 81 % 0 lf 1015,9 hPa 0,0 l/m 0 min 0 min 0 W/m 15,8 km/h (3 Bft) 95,74 %
04.02.2018 07:50 -0,4 C -0,6 C -1,1 C 81 % 0 lf 1015,9 hPa 0,0 l/m 0 min 0 min 0 W/m 20,3 km/h (4 Bft) 96,55 %
04.02.2018 07:52 -0,4 C -0,6 C -1,1 C 82 % 0 lf 1015,9 hPa 0,0 l/m 0 min 0 min 0 W/m 18,0 km/h (3 Bft) 97,14 %
04.02.2018 07:54 -0,4 C -0,6 C -1,1 C 81 % 0 lf 1015,9 hPa 0,0 l/m 0 min 0 min 0 W/m 20,3 km/h (4 Bft) 95,74 %
04.02.2018 07:56 -0,4 C -0,6 C -1,1 C 81 % 0 lf 1015,9 hPa 0,0 l/m 0 min 0 min 0 W/m 13,5 km/h (3 Bft) 95,74 %
04.02.2018 07:58 -0,4 C -0,6 C -1,1 C 81 % 0 lf 1016,0 hPa 0,0 l/m 0 min 0 min 0 W/m 20,3 km/h (4 Bft) 97,87 %
04.02.2018 08:00 -0,4 C -0,6 C -1,1 C 82 % 0 lf 1016,0 hPa 0,0 l/m 0 min 0 min 0 W/m 18,0 km/h (3 Bft) 95,74 %
04.02.2018 08:02 -0,4 C -0,6 C -1,1 C 82 % 0 lf 1016,1 hPa 0,0 l/m 0 min 0 min 0 W/m 15,8 km/h (3 Bft) 97,83 %
04.02.2018 08:04 -0,4 C -0,6 C -1,1 C 82 % 0 lf 1016,1 hPa 0,0 l/m 0 min 0 min 0 W/m 11,3 km/h (2 Bft) 93,62 %
04.02.2018 08:06 -0,4 C -0,6 C -1,1 C 82 % 0 lf 1016,2 hPa 0,0 l/m 0 min 0 min 0 W/m 11,3 km/h (2 Bft) 95,74 %
04.02.2018 08:08 -0,4 C -0,6 C -1,1 C 82 % 0 lf 1016,2 hPa 0,0 l/m 0 min 0 min 0 W/m 11,3 km/h (2 Bft) 95,74 %
04.02.2018 08:10 -0,4 C -0,6 C -1,1 C 82 % 0 lf 1016,2 hPa 0,0 l/m 0 min 0 min 0 W/m 13,5 km/h (3 Bft) 97,87 %
04.02.2018 08:12 -0,4 C -0,6 C -1,1 C 82 % 0 lf 1016,3 hPa 0,0 l/m 0 min 0 min 0 W/m 15,8 km/h (3 Bft) 97,87 %
04.02.2018 08:14 -0,4 C -0,6 C -1,1 C 82 % 0 lf 1016,3 hPa 0,0 l/m 0 min 0 min 0 W/m 11,3 km/h (2 Bft) 97,83 %
04.02.2018 08:16 -0,3 C -0,6 C -1,1 C 82 % 0 lf 1016,3 hPa 0,0 l/m 0 min 0 min 0 W/m 13,5 km/h (3 Bft) 97,87 %
04.02.2018 08:18 -0,4 C -0,6 C -1,1 C 82 % 0 lf 1016,4 hPa 0,0 l/m 0 min 0 min 0 W/m 15,8 km/h (3 Bft) 95,74 %
04.02.2018 08:20 -0,3 C -0,6 C -1,1 C 82 % 0 lf 1016,3 hPa 0,0 l/m 0 min 0 min 1 W/m 11,3 km/h (2 Bft) 98,31 %
04.02.2018 08:22 -0,3 C -0,6 C -1,1 C 82 % 0 lf 1016,4 hPa 0,0 l/m 0 min 0 min 5 W/m 9,0 km/h (2 Bft) 100,00 %
04.02.2018 08:24 -0,3 C -0,6 C -1,1 C 82 % 0 lf 1016,4 hPa 0,0 l/m 0 min 0 min 5 W/m 11,3 km/h (2 Bft) 100,00 %
04.02.2018 08:26 -0,3 C -0,6 C -1,1 C 82 % 0 lf 1016,5 hPa 0,0 l/m 0 min 0 min 5 W/m 13,5 km/h (3 Bft) 97,83 %
04.02.2018 08:28 -0,3 C -0,6 C -1,1 C 82 % 0 lf 1016,5 hPa 0,0 l/m 0 min 0 min 7 W/m 13,5 km/h (3 Bft) 100,00 %
04.02.2018 08:30 -0,3 C -0,6 C -1,1 C 83 % 0 lf 1016,5 hPa 0,0 l/m 0 min 0 min 7 W/m 9,0 km/h (2 Bft) 95,74 %
04.02.2018 08:32 -0,3 C -0,6 C -1,1 C 83 % 0 lf 1016,5 hPa 0,0 l/m 0 min 0 min 7 W/m 6,8 km/h (2 Bft) 100,00 %
04.02.2018 08:34 -0,3 C -0,6 C -1,1 C 83 % 0 lf 1016,6 hPa 0,0 l/m 0 min 0 min 7 W/m 11,3 km/h (2 Bft) 97,87 %
04.02.2018 08:36 -0,3 C -0,6 C -1,1 C 83 % 0 lf 1016,7 hPa 0,0 l/m 0 min 0 min 9 W/m 13,5 km/h (3 Bft) 73,91 %
04.02.2018 08:38 -0,3 C -0,6 C -1,1 C 83 % 0 lf 1016,7 hPa 0,0 l/m 0 min 0 min 9 W/m 11,3 km/h (2 Bft) 76,47 %
04.02.2018 08:40 -0,3 C -0,6 C -1,1 C 83 % 0 lf 1016,7 hPa 0,0 l/m 0 min 0 min 9 W/m 11,3 km/h (2 Bft) 100,00 %
04.02.2018 08:42 -0,3 C -0,6 C -1,1 C 83 % 0 lf 1016,7 hPa 0,0 l/m 0 min 0 min 9 W/m 13,5 km/h (3 Bft) 97,87 %
04.02.2018 08:44 -0,3 C -0,6 C -1,1 C 83 % 0 lf 1016,8 hPa 0,0 l/m 0 min 0 min 9 W/m 13,5 km/h (3 Bft) 97,87 %
04.02.2018 08:46 -0,3 C -0,6 C -1,1 C 83 % 0 lf 1016,8 hPa 0,0 l/m 0 min 0 min 11 W/m 11,3 km/h (2 Bft) 97,87 %
04.02.2018 08:48 -0,3 C -0,6 C -1,1 C 84 % 0 lf 1016,8 hPa 0,0 l/m 0 min 0 min 12 W/m 11,3 km/h (2 Bft) 97,83 %
04.02.2018 08:50 -0,3 C -0,6 C -1,1 C 84 % 0 lf 1016,9 hPa 0,0 l/m 0 min 0 min 13 W/m 6,8 km/h (2 Bft) 96,61 %
04.02.2018 08:52 -0,3 C -0,6 C -1,1 C 84 % 0 lf 1016,8 hPa 0,0 l/m 0 min 0 min 15 W/m 9,0 km/h (2 Bft) 100,00 %
04.02.2018 08:54 -0,3 C 0,0 C -1,1 C 84 % 0 lf 1016,9 hPa 0,0 l/m 0 min 0 min 18 W/m 9,0 km/h (2 Bft) 97,87 %
04.02.2018 08:56 -0,3 C 0,0 C -1,1 C 84 % 0 lf 1016,9 hPa 0,0 l/m 0 min 0 min 19 W/m 11,3 km/h (2 Bft) 93,62 %
04.02.2018 08:58 -0,3 C 0,0 C -1,1 C 84 % 0 lf 1017,0 hPa 0,0 l/m 0 min 0 min 21 W/m 9,0 km/h (2 Bft) 91,49 %
04.02.2018 09:00 -0,3 C 0,0 C -1,1 C 84 % 0 lf 1017,1 hPa 0,0 l/m 0 min 0 min 21 W/m 6,8 km/h (2 Bft) 95,65 %
04.02.2018 09:02 -0,3 C 0,0 C -1,1 C 84 % 0 lf 1017,0 hPa 0,0 l/m 0 min 0 min 25 W/m 6,8 km/h (2 Bft) 97,87 %
04.02.2018 09:04 -0,3 C 0,0 C -1,1 C 84 % 0 lf 1017,0 hPa 0,0 l/m 0 min 0 min 30 W/m 4,5 km/h (1 Bft) 95,74 %
04.02.2018 09:06 -0,3 C 0,0 C -0,6 C 84 % 0 lf 1016,9 hPa 0,0 l/m 0 min 0 min 41 W/m 9,0 km/h (2 Bft) 95,74 %
04.02.2018 09:08 -0,3 C 0,0 C -0,6 C 84 % 0 lf 1016,9 hPa 0,0 l/m 0 min 0 min 51 W/m 4,5 km/h (1 Bft) 93,62 %
04.02.2018 09:10 -0,2 C 0,6 C -0,6 C 85 % 0 lf 1016,9 hPa 0,0 l/m 0 min 0 min 61 W/m 6,8 km/h (2 Bft) 95,74 %
04.02.2018 09:12 -0,2 C 0,6 C -0,6 C 84 % 0 lf 1017,0 hPa 0,0 l/m 0 min 0 min 65 W/m 9,0 km/h (2 Bft) 93,48 %
04.02.2018 09:14 -0,2 C 0,6 C -0,6 C 85 % 0 lf 1017,0 hPa 0,0 l/m 0 min 0 min 65 W/m 6,8 km/h (2 Bft) 97,87 %
04.02.2018 09:16 -0,2 C 0,6 C -0,6 C 85 % 0 lf 1017,0 hPa 0,0 l/m 0 min 0 min 63 W/m 6,8 km/h (2 Bft) 93,62 %
04.02.2018 09:18 -0,2 C 0,6 C -0,6 C 85 % 0 lf 1017,0 hPa 0,0 l/m 0 min 0 min 60 W/m 9,0 km/h (2 Bft) 95,74 %
04.02.2018 09:20 -0,2 C 0,6 C -1,1 C 85 % 0 lf 1017,0 hPa 0,0 l/m 0 min 0 min 61 W/m 6,8 km/h (2 Bft) 94,83 %
04.02.2018 09:22 -0,2 C 0,6 C -1,1 C 85 % 0 lf 1017,0 hPa 0,0 l/m 0 min 0 min 64 W/m 6,8 km/h (2 Bft) 97,22 %
04.02.2018 09:24 -0,2 C 1,1 C -1,1 C 85 % 0 lf 1017,0 hPa 0,0 l/m 0 min 0 min 75 W/m 4,5 km/h (1 Bft) 95,65 %
04.02.2018 09:26 -0,2 C 1,1 C -0,6 C 85 % 0 lf 1017,0 hPa 0,0 l/m 0 min 0 min 84 W/m 4,5 km/h (1 Bft) 95,74 %
04.02.2018 09:28 -0,2 C 1,1 C -0,6 C 85 % 0 lf 1017,0 hPa 0,0 l/m 0 min 0 min 87 W/m 4,5 km/h (1 Bft) 93,62 %
04.02.2018 09:30 -0,1 C 1,7 C -0,6 C 85 % 0 lf 1017,1 hPa 0,0 l/m 0 min 0 min 92 W/m 6,8 km/h (2 Bft) 95,74 %
04.02.2018 09:32 -0,1 C 1,7 C 0,0 C 85 % 0 lf 1017,1 hPa 0,0 l/m 0 min 0 min 89 W/m 9,0 km/h (2 Bft) 93,62 %
04.02.2018 09:34 -0,1 C 1,7 C 0,0 C 85 % 0 lf 1017,1 hPa 0,0 l/m 0 min 0 min 79 W/m 11,3 km/h (2 Bft) 95,74 %
04.02.2018 09:36 -0,1 C 1,7 C 0,0 C 85 % 0 lf 1017,2 hPa 0,0 l/m 0 min 0 min 77 W/m 6,8 km/h (2 Bft) 95,65 %
04.02.2018 09:38 -0,1 C 1,7 C 0,0 C 85 % 0 lf 1017,2 hPa 0,0 l/m 0 min 0 min 83 W/m 11,3 km/h (2 Bft) 93,62 %
04.02.2018 09:40 -0,1 C 1,7 C 0,0 C 85 % 0 lf 1017,3 hPa 0,0 l/m 0 min 0 min 86 W/m 11,3 km/h (2 Bft) 95,74 %
04.02.2018 09:42 -0,1 C 1,7 C 0,0 C 85 % 0 lf 1017,3 hPa 0,0 l/m 0 min 0 min 88 W/m 11,3 km/h (2 Bft) 97,87 %
04.02.2018 09:44 -0,1 C 1,1 C 0,0 C 85 % 0 lf 1017,4 hPa 0,0 l/m 0 min 0 min 93 W/m 18,0 km/h (3 Bft) 97,87 %
04.02.2018 09:46 0,0 C 1,1 C 0,0 C 85 % 0 lf 1017,4 hPa 0,0 l/m 0 min 0 min 102 W/m 11,3 km/h (2 Bft) 95,65 %
04.02.2018 09:48 0,0 C 1,7 C 0,0 C 85 % 0 lf 1017,4 hPa 0,0 l/m 0 min 0 min 103 W/m 11,3 km/h (2 Bft) 100,00 %
04.02.2018 09:50 0,0 C 1,7 C 0,0 C 85 % 0 lf 1017,4 hPa 0,0 l/m 0 min 0 min 110 W/m 11,3 km/h (2 Bft) 98,31 %
04.02.2018 09:52 0,1 C 2,2 C 0,0 C 86 % 0 lf 1017,4 hPa 0,0 l/m 2 min 0 min 123 W/m 11,3 km/h (2 Bft) 97,14 %
04.02.2018 09:54 0,1 C 2,8 C 0,6 C 86 % 0 lf 1017,4 hPa 0,0 l/m 2 min 0 min 142 W/m 15,8 km/h (3 Bft) 95,74 %
04.02.2018 09:56 0,1 C 4,4 C 0,6 C 86 % 0 lf 1017,4 hPa 0,0 l/m 2 min 0 min 195 W/m 15,8 km/h (3 Bft) 93,62 %
04.02.2018 09:58 0,1 C 5,0 C 0,6 C 86 % 0 lf 1017,4 hPa 0,0 l/m 2 min 0 min 203 W/m 15,8 km/h (3 Bft) 97,83 %
04.02.2018 10:00 0,2 C 4,4 C 0,6 C 86 % 0 lf 1017,4 hPa 0,0 l/m 2 min 0 min 149 W/m 18,0 km/h (3 Bft) 97,87 %
04.02.2018 10:02 0,2 C 3,9 C 0,6 C 86 % 0 lf 1017,4 hPa 0,0 l/m 0 min 0 min 122 W/m 15,8 km/h (3 Bft) 93,62 %
04.02.2018 10:04 0,3 C 3,3 C 0,6 C 86 % 0 lf 1017,4 hPa 0,0 l/m 0 min 0 min 114 W/m 15,8 km/h (3 Bft) 95,74 %
04.02.2018 10:06 0,3 C 3,3 C 0,6 C 86 % 0 lf 1017,4 hPa 0,0 l/m 0 min 0 min 111 W/m 20,3 km/h (4 Bft) 97,87 %
04.02.2018 10:08 0,3 C 2,8 C 0,0 C 86 % 0 lf 1017,5 hPa 0,0 l/m 0 min 0 min 101 W/m 15,8 km/h (3 Bft) 93,62 %
04.02.2018 10:10 0,4 C 2,2 C 0,0 C 86 % 0 lf 1017,5 hPa 0,0 l/m 0 min 0 min 95 W/m 20,3 km/h (4 Bft) 97,83 %
04.02.2018 10:12 0,4 C 2,8 C 0,0 C 85 % 0 lf 1017,5 hPa 0,0 l/m 0 min 0 min 131 W/m 20,3 km/h (4 Bft) 95,74 %
04.02.2018 10:14 0,4 C 3,3 C 0,0 C 85 % 0 lf 1017,5 hPa 0,0 l/m 2 min 0 min 178 W/m 18,0 km/h (3 Bft) 97,87 %
04.02.2018 10:16 0,4 C 3,9 C 0,6 C 85 % 0 lf 1017,6 hPa 0,0 l/m 2 min 0 min 171 W/m 18,0 km/h (3 Bft) 97,87 %
04.02.2018 10:18 0,4 C 3,3 C 0,6 C 85 % 0 lf 1017,6 hPa 0,0 l/m 2 min 0 min 150 W/m 20,3 km/h (4 Bft) 95,74 %
04.02.2018 10:20 0,4 C 3,3 C 0,6 C 85 % 0 lf 1017,6 hPa 0,0 l/m 2 min 0 min 151 W/m 13,5 km/h (3 Bft) 91,49 %
04.02.2018 10:22 0,5 C 3,3 C 1,1 C 85 % 0 lf 1017,6 hPa 0,0 l/m 2 min 0 min 178 W/m 20,3 km/h (4 Bft) 95,65 %
04.02.2018 10:24 0,5 C 3,3 C 1,1 C 85 % 0 lf 1017,7 hPa 0,0 l/m 2 min 0 min 192 W/m 15,8 km/h (3 Bft) 93,62 %
04.02.2018 10:26 0,5 C 3,3 C 1,1 C 85 % 0 lf 1017,7 hPa 0,0 l/m 2 min 0 min 171 W/m 13,5 km/h (3 Bft) 93,62 %
04.02.2018 10:28 0,5 C 3,3 C 1,1 C 85 % 0 lf 1017,7 hPa 0,0 l/m 2 min 0 min 161 W/m 13,5 km/h (3 Bft) 95,74 %
04.02.2018 10:30 0,5 C 3,3 C 1,1 C 85 % 0 lf 1017,7 hPa 0,0 l/m 2 min 0 min 169 W/m 15,8 km/h (3 Bft) 95,74 %
04.02.2018 10:32 0,5 C 2,8 C 1,1 C 85 % 0 lf 1017,7 hPa 0,0 l/m 2 min 0 min 166 W/m 15,8 km/h (3 Bft) 95,74 %
04.02.2018 10:34 0,5 C 2,8 C 1,1 C 85 % 0 lf 1017,7 hPa 0,0 l/m 0 min 0 min 146 W/m 20,3 km/h (4 Bft) 95,65 %
04.02.2018 10:36 0,6 C 2,8 C 1,1 C 85 % 0 lf 1017,8 hPa 0,0 l/m 0 min 0 min 133 W/m 13,5 km/h (3 Bft) 95,74 %
04.02.2018 10:38 0,6 C 2,2 C 1,1 C 85 % 0 lf 1017,8 hPa 0,0 l/m 0 min 0 min 117 W/m 13,5 km/h (3 Bft) 97,87 %
04.02.2018 10:40 0,6 C 2,2 C 0,6 C 85 % 0 lf 1017,9 hPa 0,0 l/m 0 min 0 min 101 W/m 18,0 km/h (3 Bft) 97,87 %
04.02.2018 10:42 0,7 C 2,2 C 0,6 C 85 % 0 lf 1017,8 hPa 0,0 l/m 0 min 0 min 88 W/m 15,8 km/h (3 Bft) 97,87 %
04.02.2018 10:44 0,7 C 1,7 C 0,6 C 85 % 1 lf 1017,9 hPa 0,0 l/m 0 min 0 min 83 W/m 15,8 km/h (3 Bft) 97,87 %
04.02.2018 10:46 0,7 C 1,7 C 0,6 C 85 % 0 lf 1017,9 hPa 0,0 l/m 0 min 0 min 71 W/m 18,0 km/h (3 Bft) 97,83 %
04.02.2018 10:48 0,7 C 1,7 C 0,6 C 85 % 0 lf 1017,9 hPa 0,0 l/m 0 min 0 min 63 W/m 11,3 km/h (2 Bft) 97,87 %
04.02.2018 10:50 0,7 C 1,7 C 0,6 C 85 % 1 lf 1018,0 hPa 0,0 l/m 0 min 0 min 60 W/m 15,8 km/h (3 Bft) 95,74 %
04.02.2018 10:52 0,7 C 1,1 C 0,6 C 85 % 1 lf 1018,0 hPa 0,0 l/m 0 min 0 min 60 W/m 20,3 km/h (4 Bft) 93,62 %
04.02.2018 10:54 0,7 C 1,1 C 0,0 C 85 % 1 lf 1018,0 hPa 0,0 l/m 0 min 0 min 62 W/m 22,5 km/h (4 Bft) 93,62 %
04.02.2018 10:56 0,7 C 1,1 C 0,0 C 85 % 1 lf 1018,0 hPa 0,0 l/m 0 min 0 min 63 W/m 18,0 km/h (3 Bft) 95,65 %
04.02.2018 10:58 0,7 C 1,1 C 0,0 C 85 % 3 lf 1018,0 hPa 0,0 l/m 0 min 0 min 63 W/m 15,8 km/h (3 Bft) 97,87 %
04.02.2018 11:00 0,7 C 1,1 C 0,0 C 85 % 7 lf 1018,1 hPa 0,0 l/m 0 min 0 min 66 W/m 20,3 km/h (4 Bft) 97,87 %
04.02.2018 11:02 0,7 C 1,1 C 0,0 C 85 % 8 lf 1018,2 hPa 0,0 l/m 0 min 0 min 64 W/m 20,3 km/h (4 Bft) 93,62 %
04.02.2018 11:04 0,7 C 1,1 C 0,0 C 85 % 10 lf 1018,2 hPa 0,0 l/m 0 min 0 min 61 W/m 18,0 km/h (3 Bft) 93,62 %
04.02.2018 11:06 0,6 C 1,1 C 0,0 C 85 % 13 lf 1018,2 hPa 0,0 l/m 0 min 0 min 56 W/m 13,5 km/h (3 Bft) 95,74 %
04.02.2018 11:08 0,6 C 1,1 C 0,0 C 85 % 14 lf 1018,2 hPa 0,0 l/m 0 min 0 min 56 W/m 11,3 km/h (2 Bft) 97,87 %
04.02.2018 11:10 0,6 C 1,1 C 0,0 C 86 % 14 lf 1018,2 hPa 0,0 l/m 0 min 0 min 58 W/m 9,0 km/h (2 Bft) 93,48 %
04.02.2018 11:12 0,6 C 1,1 C 0,0 C 86 % 15 lf 1018,3 hPa 0,0 l/m 0 min 0 min 62 W/m 13,5 km/h (3 Bft) 93,62 %
04.02.2018 11:14 0,6 C 1,1 C 0,0 C 86 % 15 lf 1018,3 hPa 0,0 l/m 0 min 0 min 62 W/m 6,8 km/h (2 Bft) 97,87 %
04.02.2018 11:16 0,6 C 1,1 C 0,0 C 86 % 15 lf 1018,3 hPa 0,0 l/m 0 min 0 min 63 W/m 13,5 km/h (3 Bft) 97,87 %
04.02.2018 11:18 0,6 C 1,1 C -0,6 C 86 % 15 lf 1018,3 hPa 0,0 l/m 0 min 0 min 62 W/m 13,5 km/h (3 Bft) 97,87 %
04.02.2018 11:20 0,6 C 1,1 C -0,6 C 87 % 15 lf 1018,3 hPa 0,0 l/m 0 min 0 min 66 W/m 13,5 km/h (3 Bft) 97,83 %
04.02.2018 11:22 0,6 C 1,1 C -0,6 C 87 % 15 lf 1018,3 hPa 0,0 l/m 0 min 0 min 68 W/m 9,0 km/h (2 Bft) 95,74 %
04.02.2018 11:24 0,6 C 1,1 C -1,1 C 87 % 15 lf 1018,3 hPa 0,0 l/m 0 min 0 min 64 W/m 13,5 km/h (3 Bft) 97,87 %
04.02.2018 11:26 0,5 C 1,1 C -1,1 C 87 % 15 lf 1018,4 hPa 0,0 l/m 0 min 0 min 59 W/m 6,8 km/h (2 Bft) 95,74 %
04.02.2018 11:28 0,5 C 1,1 C -1,1 C 87 % 15 lf 1018,4 hPa 0,0 l/m 0 min 0 min 53 W/m 6,8 km/h (2 Bft) 93,62 %
04.02.2018 11:30 0,6 C 0,6 C -1,1 C 88 % 15 lf 1018,4 hPa 0,0 l/m 0 min 2 min 46 W/m 11,3 km/h (2 Bft) 97,87 %
04.02.2018 11:32 0,5 C 0,6 C -1,1 C 88 % 15 lf 1018,4 hPa 0,0 l/m 0 min 2 min 38 W/m 11,3 km/h (2 Bft) 97,83 %
04.02.2018 11:34 0,5 C 0,6 C -1,1 C 88 % 15 lf 1018,4 hPa 0,0 l/m 0 min 2 min 32 W/m 6,8 km/h (2 Bft) 95,74 %
04.02.2018 11:36 0,5 C 0,6 C -1,1 C 88 % 15 lf 1018,4 hPa 0,0 l/m 0 min 2 min 32 W/m 6,8 km/h (2 Bft) 97,87 %
04.02.2018 11:38 0,5 C 0,6 C -1,1 C 88 % 15 lf 1018,4 hPa 0,0 l/m 0 min 2 min 30 W/m 4,5 km/h (1 Bft) 97,87 %
04.02.2018 11:40 0,5 C 0,6 C -1,1 C 88 % 15 lf 1018,5 hPa 0,0 l/m 0 min 2 min 30 W/m 4,5 km/h (1 Bft) 95,74 %
04.02.2018 11:42 0,5 C 0,6 C -1,1 C 88 % 15 lf 1018,5 hPa 0,0 l/m 0 min 2 min 32 W/m 6,8 km/h (2 Bft) 100,00 %
04.02.2018 11:44 0,5 C 0,6 C -1,1 C 89 % 15 lf 1018,4 hPa 0,0 l/m 0 min 2 min 36 W/m 4,5 km/h (1 Bft) 100,00 %
04.02.2018 11:46 0,5 C 0,6 C -1,1 C 89 % 15 lf 1018,5 hPa 0,0 l/m 0 min 2 min 33 W/m 4,5 km/h (1 Bft) 95,74 %
04.02.2018 11:48 0,5 C 0,6 C -1,1 C 89 % 15 lf 1018,4 hPa 0,0 l/m 0 min 2 min 36 W/m 6,8 km/h (2 Bft) 100,00 %
04.02.2018 11:50 0,5 C 0,6 C -1,1 C 89 % 15 lf 1018,4 hPa 0,0 l/m 0 min 2 min 42 W/m 6,8 km/h (2 Bft) 100,00 %
04.02.2018 11:52 0,5 C 0,6 C -1,1 C 89 % 15 lf 1018,4 hPa 0,0 l/m 0 min 2 min 44 W/m 4,5 km/h (1 Bft) 100,00 %
04.02.2018 11:54 0,4 C 0,6 C -1,1 C 89 % 15 lf 1018,4 hPa 0,0 l/m 0 min 2 min 40 W/m 6,8 km/h (2 Bft) 100,00 %
04.02.2018 11:56 0,4 C 0,6 C -1,1 C 89 % 15 lf 1018,5 hPa 0,0 l/m 0 min 2 min 39 W/m 9,0 km/h (2 Bft) 100,00 %
04.02.2018 11:58 0,4 C 0,6 C -1,1 C 90 % 15 lf 1018,5 hPa 0,0 l/m 0 min 2 min 39 W/m 9,0 km/h (2 Bft) 100,00 %
04.02.2018 12:00 0,4 C 0,6 C -1,1 C 90 % 15 lf 1018,5 hPa 0,0 l/m 0 min 2 min 35 W/m 6,8 km/h (2 Bft) 97,87 %
04.02.2018 12:02 0,4 C 0,6 C -1,1 C 90 % 15 lf 1018,5 hPa 0,0 l/m 0 min 2 min 39 W/m 11,3 km/h (2 Bft) 93,62 %
04.02.2018 12:04 0,4 C 0,6 C -1,1 C 90 % 15 lf 1018,5 hPa 0,0 l/m 0 min 2 min 42 W/m 9,0 km/h (2 Bft) 100,00 %
04.02.2018 12:06 0,4 C 0,6 C -1,1 C 90 % 15 lf 1018,5 hPa 0,0 l/m 0 min 2 min 40 W/m 9,0 km/h (2 Bft) 95,65 %
04.02.2018 12:08 0,4 C 0,6 C -1,1 C 90 % 15 lf 1018,6 hPa 0,0 l/m 0 min 0 min 37 W/m 9,0 km/h (2 Bft) 100,00 %
04.02.2018 12:10 0,4 C 0,6 C -1,1 C 90 % 15 lf 1018,5 hPa 0,0 l/m 0 min 2 min 35 W/m 4,5 km/h (1 Bft) 100,00 %
04.02.2018 12:12 0,4 C 0,6 C -1,1 C 91 % 15 lf 1018,6 hPa 0,0 l/m 0 min 0 min 43 W/m 6,8 km/h (2 Bft) 97,87 %
04.02.2018 12:14 0,4 C 0,6 C -1,1 C 91 % 15 lf 1018,6 hPa 0,0 l/m 0 min 2 min 47 W/m 9,0 km/h (2 Bft) 97,87 %
04.02.2018 12:16 0,4 C 1,1 C -1,1 C 91 % 15 lf 1018,6 hPa 0,0 l/m 0 min 2 min 52 W/m 6,8 km/h (2 Bft) 100,00 %
04.02.2018 12:18 0,4 C 1,1 C -1,1 C 91 % 15 lf 1018,5 hPa 0,0 l/m 0 min 0 min 61 W/m 13,5 km/h (3 Bft) 95,65 %
04.02.2018 12:20 0,3 C 1,1 C -1,1 C 91 % 15 lf 1018,6 hPa 0,0 l/m 0 min 0 min 75 W/m 11,3 km/h (2 Bft) 95,74 %
04.02.2018 12:22 0,4 C 1,1 C -1,1 C 91 % 15 lf 1018,6 hPa 0,0 l/m 0 min 0 min 96 W/m 6,8 km/h (2 Bft) 97,87 %
04.02.2018 12:24 0,4 C 1,7 C -1,1 C 91 % 15 lf 1018,6 hPa 0,0 l/m 0 min 0 min 90 W/m 11,3 km/h (2 Bft) 100,00 %
04.02.2018 12:26 0,4 C 1,7 C -1,1 C 91 % 15 lf 1018,7 hPa 0,0 l/m 0 min 0 min 71 W/m 11,3 km/h (2 Bft) 95,74 %
04.02.2018 12:28 0,4 C 1,1 C -1,1 C 92 % 15 lf 1018,7 hPa 0,0 l/m 0 min 0 min 66 W/m 15,8 km/h (3 Bft) 100,00 %
04.02.2018 12:30 0,4 C 1,1 C -1,1 C 92 % 15 lf 1018,7 hPa 0,0 l/m 0 min 2 min 69 W/m 13,5 km/h (3 Bft) 97,83 %
04.02.2018 12:32 0,4 C 1,1 C -1,1 C 92 % 15 lf 1018,7 hPa 0,0 l/m 0 min 0 min 66 W/m 18,0 km/h (3 Bft) 97,87 %
04.02.2018 12:34 0,4 C 1,1 C -1,1 C 92 % 15 lf 1018,8 hPa 0,0 l/m 0 min 0 min 66 W/m 15,8 km/h (3 Bft) 97,87 %
04.02.2018 12:36 0,4 C 1,1 C -1,1 C 92 % 15 lf 1018,8 hPa 0,0 l/m 0 min 0 min 61 W/m 13,5 km/h (3 Bft) 97,87 %
04.02.2018 12:38 0,3 C 0,6 C -1,1 C 92 % 15 lf 1018,8 hPa 0,0 l/m 0 min 0 min 58 W/m 22,5 km/h (4 Bft) 95,74 %
04.02.2018 12:40 0,3 C 0,6 C -1,1 C 92 % 15 lf 1018,8 hPa 0,0 l/m 0 min 0 min 57 W/m 27,0 km/h (4 Bft) 95,74 %
04.02.2018 12:42 0,3 C 0,6 C -1,1 C 92 % 15 lf 1018,9 hPa 0,0 l/m 0 min 0 min 43 W/m 18,0 km/h (3 Bft) 95,65 %
04.02.2018 12:44 0,3 C 0,6 C -1,1 C 92 % 15 lf 1018,9 hPa 0,0 l/m 0 min 0 min 42 W/m 18,0 km/h (3 Bft) 93,62 %
04.02.2018 12:46 0,3 C 0,6 C -1,1 C 92 % 15 lf 1018,9 hPa 0,0 l/m 0 min 0 min 46 W/m 15,8 km/h (3 Bft) 93,62 %
04.02.2018 12:48 0,3 C 0,6 C -1,1 C 92 % 15 lf 1018,9 hPa 0,0 l/m 0 min 0 min 42 W/m 15,8 km/h (3 Bft) 95,74 %
04.02.2018 12:50 0,3 C 0,6 C -1,1 C 93 % 15 lf 1019,0 hPa 0,0 l/m 0 min 0 min 47 W/m 15,8 km/h (3 Bft) 95,74 %
04.02.2018 12:52 0,3 C 0,6 C -1,1 C 93 % 15 lf 1019,0 hPa 0,0 l/m 0 min 0 min 51 W/m 20,3 km/h (4 Bft) 95,74 %
04.02.2018 12:54 0,3 C 0,6 C -0,6 C 93 % 15 lf 1019,0 hPa 0,0 l/m 0 min 0 min 70 W/m 13,5 km/h (3 Bft) 95,65 %
04.02.2018 12:56 0,3 C 0,6 C -0,6 C 93 % 15 lf 1018,9 hPa 0,2 l/m 0 min 0 min 88 W/m 13,5 km/h (3 Bft) 95,74 %
04.02.2018 12:58 0,3 C 0,6 C -0,6 C 93 % 15 lf 1019,0 hPa 0,0 l/m 0 min 0 min 75 W/m 18,0 km/h (3 Bft) 93,62 %
04.02.2018 13:00 0,3 C 0,6 C -0,6 C 93 % 15 lf 1019,1 hPa 0,0 l/m 0 min 0 min 63 W/m 18,0 km/h (3 Bft) 89,36 %
04.02.2018 13:02 0,3 C 0,6 C -0,6 C 93 % 15 lf 1019,1 hPa 0,0 l/m 0 min 0 min 62 W/m 15,8 km/h (3 Bft) 89,36 %
04.02.2018 13:04 0,3 C 0,6 C -0,6 C 93 % 15 lf 1019,1 hPa 0,0 l/m 0 min 0 min 51 W/m 18,0 km/h (3 Bft) 93,62 %
04.02.2018 13:06 0,3 C 0,6 C -0,6 C 93 % 15 lf 1019,1 hPa 0,0 l/m 0 min 0 min 44 W/m 18,0 km/h (3 Bft) 93,48 %
04.02.2018 13:08 0,3 C 0,6 C -0,6 C 93 % 15 lf 1019,1 hPa 0,0 l/m 0 min 0 min 44 W/m 15,8 km/h (3 Bft) 93,62 %
04.02.2018 13:10 0,3 C 0,6 C -0,6 C 93 % 15 lf 1019,1 hPa 0,0 l/m 0 min 0 min 45 W/m 18,0 km/h (3 Bft) 89,36 %
04.02.2018 13:12 0,3 C 0,6 C -0,6 C 93 % 15 lf 1019,2 hPa 0,0 l/m 0 min 0 min 50 W/m 15,8 km/h (3 Bft) 91,49 %
04.02.2018 13:14 0,3 C 0,6 C -0,6 C 93 % 15 lf 1019,2 hPa 0,0 l/m 0 min 0 min 58 W/m 18,0 km/h (3 Bft) 89,36 %
04.02.2018 13:16 0,3 C 0,6 C -0,6 C 93 % 15 lf 1019,2 hPa 0,0 l/m 0 min 0 min 68 W/m 27,0 km/h (4 Bft) 91,30 %
04.02.2018 13:18 0,3 C 0,6 C -0,6 C 94 % 15 lf 1019,2 hPa 0,0 l/m 0 min 0 min 62 W/m 20,3 km/h (4 Bft) 91,49 %
04.02.2018 13:20 0,3 C 0,6 C -0,6 C 94 % 15 lf 1019,2 hPa 0,0 l/m 0 min 0 min 61 W/m 18,0 km/h (3 Bft) 89,36 %
04.02.2018 13:22 0,3 C 0,6 C -0,6 C 94 % 15 lf 1019,2 hPa 0,0 l/m 0 min 0 min 63 W/m 20,3 km/h (4 Bft) 93,62 %
04.02.2018 13:24 0,3 C 0,6 C -0,6 C 94 % 15 lf 1019,2 hPa 0,0 l/m 0 min 0 min 56 W/m 18,0 km/h (3 Bft) 91,49 %
04.02.2018 13:26 0,3 C 0,6 C -0,6 C 94 % 15 lf 1019,2 hPa 0,0 l/m 0 min 2 min 51 W/m 15,8 km/h (3 Bft) 91,49 %
04.02.2018 13:28 0,3 C 0,6 C -0,6 C 94 % 15 lf 1019,3 hPa 0,0 l/m 0 min 0 min 44 W/m 24,8 km/h (4 Bft) 93,62 %
04.02.2018 13:30 0,3 C 0,6 C -0,6 C 94 % 15 lf 1019,3 hPa 0,0 l/m 0 min 0 min 44 W/m 27,0 km/h (4 Bft) 91,30 %
04.02.2018 13:32 0,3 C 0,6 C -0,6 C 94 % 15 lf 1019,3 hPa 0,0 l/m 0 min 0 min 39 W/m 15,8 km/h (3 Bft) 95,74 %
04.02.2018 13:34 0,3 C 0,6 C -0,6 C 94 % 15 lf 1019,4 hPa 0,0 l/m 0 min 0 min 33 W/m 20,3 km/h (4 Bft) 93,62 %
04.02.2018 13:36 0,3 C 0,6 C -0,6 C 94 % 15 lf 1019,4 hPa 0,0 l/m 0 min 0 min 32 W/m 22,5 km/h (4 Bft) 93,62 %
04.02.2018 13:38 0,3 C 0,6 C -0,6 C 94 % 15 lf 1019,4 hPa 0,0 l/m 0 min 2 min 29 W/m 15,8 km/h (3 Bft) 95,74 %
04.02.2018 13:40 0,3 C 0,6 C -1,1 C 94 % 15 lf 1019,5 hPa 0,0 l/m 0 min 2 min 25 W/m 15,8 km/h (3 Bft) 95,74 %
04.02.2018 13:42 0,3 C 0,6 C -1,1 C 94 % 15 lf 1019,5 hPa 0,0 l/m 0 min 2 min 23 W/m 15,8 km/h (3 Bft) 95,65 %
04.02.2018 13:44 0,3 C 0,6 C -1,1 C 94 % 15 lf 1019,6 hPa 0,0 l/m 0 min 2 min 26 W/m 13,5 km/h (3 Bft) 95,74 %
04.02.2018 13:46 0,3 C 0,0 C -1,1 C 94 % 15 lf 1019,6 hPa 0,0 l/m 0 min 2 min 24 W/m 18,0 km/h (3 Bft) 95,74 %
04.02.2018 13:48 0,3 C 0,0 C -1,1 C 94 % 15 lf 1019,6 hPa 0,0 l/m 0 min 0 min 23 W/m 15,8 km/h (3 Bft) 97,87 %
04.02.2018 13:50 0,2 C 0,6 C -1,1 C 94 % 15 lf 1019,6 hPa 0,0 l/m 0 min 0 min 30 W/m 15,8 km/h (3 Bft) 100,00 %
04.02.2018 13:52 0,3 C 0,6 C -1,1 C 94 % 15 lf 1019,6 hPa 0,0 l/m 0 min 0 min 34 W/m 11,3 km/h (2 Bft) 100,00 %
04.02.2018 13:54 0,2 C 0,6 C -1,1 C 94 % 15 lf 1019,7 hPa 0,0 l/m 0 min 0 min 39 W/m 15,8 km/h (3 Bft) 100,00 %
04.02.2018 13:56 0,2 C 0,6 C -1,1 C 94 % 15 lf 1019,6 hPa 0,0 l/m 0 min 0 min 37 W/m 11,3 km/h (2 Bft) 97,87 %
04.02.2018 13:58 0,2 C 0,6 C -1,1 C 94 % 15 lf 1019,7 hPa 0,0 l/m 0 min 0 min 47 W/m 15,8 km/h (3 Bft) 100,00 %
04.02.2018 14:00 0,2 C 0,6 C -1,1 C 94 % 15 lf 1019,7 hPa 0,0 l/m 0 min 0 min 53 W/m 20,3 km/h (4 Bft) 100,00 %
04.02.2018 14:02 0,2 C 0,6 C -1,1 C 94 % 15 lf 1019,7 hPa 0,0 l/m 0 min 0 min 58 W/m 20,3 km/h (4 Bft) 100,00 %
04.02.2018 14:04 0,2 C 1,1 C -0,6 C 94 % 15 lf 1019,7 hPa 0,0 l/m 0 min 0 min 57 W/m 20,3 km/h (4 Bft) 100,00 %
04.02.2018 14:06 0,2 C 1,1 C -0,6 C 94 % 15 lf 1019,7 hPa 0,0 l/m 0 min 0 min 54 W/m 6,8 km/h (2 Bft) 100,00 %
04.02.2018 14:08 0,2 C 1,1 C -0,6 C 94 % 15 lf 1019,8 hPa 0,0 l/m 0 min 0 min 59 W/m 9,0 km/h (2 Bft) 100,00 %
04.02.2018 14:10 0,2 C 1,1 C -0,6 C 94 % 15 lf 1019,8 hPa 0,0 l/m 0 min 0 min 61 W/m 11,3 km/h (2 Bft) 97,87 %
04.02.2018 14:12 0,2 C 1,1 C -0,6 C 94 % 15 lf 1019,8 hPa 0,0 l/m 0 min 0 min 72 W/m 15,8 km/h (3 Bft) 97,87 %
04.02.2018 14:14 0,3 C 1,1 C -0,6 C 94 % 15 lf 1019,9 hPa 0,0 l/m 0 min 0 min 78 W/m 13,5 km/h (3 Bft) 100,00 %
04.02.2018 14:16 0,3 C 1,7 C 0,0 C 94 % 15 lf 1019,8 hPa 0,0 l/m 0 min 0 min 109 W/m 11,3 km/h (2 Bft) 98,18 %
04.02.2018 14:18 0,3 C 1,7 C 0,0 C 94 % 15 lf 1019,8 hPa 0,0 l/m 0 min 2 min 90 W/m 15,8 km/h (3 Bft) 100,00 %
04.02.2018 14:20 0,3 C 1,7 C 0,0 C 94 % 15 lf 1019,8 hPa 0,0 l/m 0 min 0 min 85 W/m 15,8 km/h (3 Bft) 97,87 %
04.02.2018 14:22 0,3 C 1,7 C 0,0 C 94 % 15 lf 1019,8 hPa 0,0 l/m 0 min 0 min 110 W/m 13,5 km/h (3 Bft) 97,87 %
04.02.2018 14:24 0,4 C 1,7 C 0,6 C 95 % 15 lf 1019,9 hPa 0,0 l/m 0 min 0 min 139 W/m 20,3 km/h (4 Bft) 100,00 %
04.02.2018 14:26 0,4 C 2,2 C 0,6 C 94 % 15 lf 1019,9 hPa 0,0 l/m 0 min 0 min 171 W/m 9,0 km/h (2 Bft) 100,00 %
04.02.2018 14:28 0,5 C 2,2 C 0,6 C 95 % 15 lf 1019,9 hPa 0,0 l/m 2 min 0 min 185 W/m 15,8 km/h (3 Bft) 97,87 %
04.02.2018 14:30 0,5 C 2,8 C 1,1 C 95 % 15 lf 1019,9 hPa 0,0 l/m 2 min 0 min 202 W/m 24,8 km/h (4 Bft) 100,00 %
04.02.2018 14:32 0,5 C 3,3 C 0,6 C 95 % 15 lf 1019,9 hPa 0,0 l/m 2 min 0 min 210 W/m 24,8 km/h (4 Bft) 97,37 %
04.02.2018 14:34 0,5 C 3,3 C 0,6 C 95 % 15 lf 1020,0 hPa 0,0 l/m 0 min 0 min 137 W/m 22,5 km/h (4 Bft) 100,00 %
04.02.2018 14:36 0,6 C 2,2 C 0,6 C 95 % 15 lf 1020,0 hPa 0,0 l/m 0 min 0 min 77 W/m 24,8 km/h (4 Bft) 100,00 %
04.02.2018 14:38 0,6 C 2,2 C 0,6 C 95 % 15 lf 1020,0 hPa 0,0 l/m 0 min 0 min 69 W/m 18,0 km/h (3 Bft) 100,00 %
04.02.2018 14:40 0,7 C 1,7 C 0,0 C 95 % 15 lf 1020,0 hPa 0,0 l/m 0 min 2 min 71 W/m 18,0 km/h (3 Bft) 97,14 %
04.02.2018 14:42 0,6 C 1,1 C 0,0 C 95 % 15 lf 1020,0 hPa 0,0 l/m 0 min 0 min 80 W/m 22,5 km/h (4 Bft) 100,00 %
04.02.2018 14:44 0,6 C 1,1 C 0,0 C 94 % 15 lf 1020,0 hPa 0,0 l/m 0 min 0 min 84 W/m 15,8 km/h (3 Bft) 100,00 %
04.02.2018 14:46 0,6 C 1,1 C 0,0 C 94 % 15 lf 1020,0 hPa 0,0 l/m 0 min 0 min 84 W/m 22,5 km/h (4 Bft) 97,87 %
04.02.2018 14:48 0,6 C 1,1 C 0,0 C 94 % 15 lf 1020,0 hPa 0,0 l/m 0 min 0 min 90 W/m 18,0 km/h (3 Bft) 100,00 %
04.02.2018 14:50 0,6 C 1,7 C 0,0 C 94 % 15 lf 1020,1 hPa 0,0 l/m 0 min 0 min 97 W/m 20,3 km/h (4 Bft) 100,00 %
04.02.2018 14:52 0,6 C 1,7 C 0,0 C 94 % 15 lf 1020,2 hPa 0,0 l/m 0 min 0 min 95 W/m 20,3 km/h (4 Bft) 97,56 %
04.02.2018 14:54 0,6 C 1,7 C 0,0 C 94 % 15 lf 1020,2 hPa 0,0 l/m 0 min 0 min 85 W/m 18,0 km/h (3 Bft) 100,00 %
04.02.2018 14:56 0,6 C 1,7 C 0,0 C 94 % 15 lf 1020,1 hPa 0,0 l/m 0 min 0 min 83 W/m 24,8 km/h (4 Bft) 100,00 %
04.02.2018 14:58 0,6 C 1,7 C 0,0 C 94 % 15 lf 1020,2 hPa 0,0 l/m 0 min 0 min 87 W/m 24,8 km/h (4 Bft) 97,87 %
04.02.2018 15:00 0,6 C 1,7 C 0,0 C 94 % 15 lf 1020,2 hPa 0,0 l/m 0 min 0 min 91 W/m 24,8 km/h (4 Bft) 97,96 %
04.02.2018 15:02 0,6 C 1,7 C 0,0 C 94 % 15 lf 1020,2 hPa 0,0 l/m 0 min 0 min 89 W/m 20,3 km/h (4 Bft) 100,00 %
04.02.2018 15:04 0,6 C 1,7 C 0,0 C 94 % 15 lf 1020,2 hPa 0,0 l/m 0 min 0 min 80 W/m 15,8 km/h (3 Bft) 100,00 %
04.02.2018 15:06 0,6 C 1,7 C 0,0 C 94 % 15 lf 1020,3 hPa 0,0 l/m 0 min 0 min 76 W/m 15,8 km/h (3 Bft) 100,00 %
04.02.2018 15:08 0,6 C 1,7 C 0,0 C 93 % 15 lf 1020,3 hPa 0,0 l/m 0 min 0 min 73 W/m 20,3 km/h (4 Bft) 97,87 %
04.02.2018 15:10 0,6 C 1,1 C 0,0 C 93 % 15 lf 1020,3 hPa 0,0 l/m 0 min 0 min 64 W/m 20,3 km/h (4 Bft) 97,87 %
04.02.2018 15:12 0,6 C 1,1 C 0,0 C 93 % 15 lf 1020,4 hPa 0,0 l/m 0 min 0 min 54 W/m 18,0 km/h (3 Bft) 97,96 %
04.02.2018 15:14 0,6 C 1,1 C 0,0 C 93 % 15 lf 1020,4 hPa 0,0 l/m 0 min 0 min 46 W/m 20,3 km/h (4 Bft) 97,87 %
04.02.2018 15:16 0,6 C 1,1 C 0,0 C 93 % 15 lf 1020,4 hPa 0,0 l/m 0 min 0 min 41 W/m 18,0 km/h (3 Bft) 98,00 %
04.02.2018 15:18 0,6 C 1,1 C 0,0 C 93 % 15 lf 1020,4 hPa 0,0 l/m 0 min 0 min 41 W/m 18,0 km/h (3 Bft) 97,87 %
04.02.2018 15:20 0,6 C 1,1 C 0,0 C 93 % 15 lf 1020,5 hPa 0,2 l/m 0 min 0 min 43 W/m 24,8 km/h (4 Bft) 96,00 %
04.02.2018 15:22 0,7 C 1,1 C 0,0 C 93 % 15 lf 1020,5 hPa 0,0 l/m 0 min 0 min 47 W/m 24,8 km/h (4 Bft) 94,29 %
04.02.2018 15:24 0,6 C 1,1 C 0,0 C 92 % 15 lf 1020,5 hPa 0,0 l/m 0 min 0 min 50 W/m 18,0 km/h (3 Bft) 100,00 %
04.02.2018 15:26 0,6 C 1,1 C 0,0 C 92 % 15 lf 1020,4 hPa 0,0 l/m 0 min 0 min 56 W/m 15,8 km/h (3 Bft) 91,30 %
04.02.2018 15:28 0,7 C 1,1 C 0,0 C 92 % 15 lf 1020,5 hPa 0,0 l/m 0 min 0 min 63 W/m 20,3 km/h (4 Bft) 97,87 %
04.02.2018 15:30 0,7 C 1,1 C 0,0 C 92 % 15 lf 1020,4 hPa 0,0 l/m 0 min 0 min 67 W/m 15,8 km/h (3 Bft) 96,43 %
04.02.2018 15:32 0,7 C 1,7 C 0,0 C 92 % 15 lf 1020,5 hPa 0,0 l/m 0 min 0 min 70 W/m 13,5 km/h (3 Bft) 94,00 %
04.02.2018 15:34 0,7 C 1,7 C 0,0 C 92 % 15 lf 1020,6 hPa 0,0 l/m 0 min 0 min 80 W/m 18,0 km/h (3 Bft) 93,48 %
04.02.2018 15:36 0,7 C 1,7 C 0,0 C 92 % 15 lf 1020,6 hPa 0,0 l/m 0 min 0 min 104 W/m 18,0 km/h (3 Bft) 94,74 %
04.02.2018 15:38 0,7 C 2,2 C 0,0 C 91 % 15 lf 1020,7 hPa 0,0 l/m 0 min 0 min 95 W/m 18,0 km/h (3 Bft) 94,00 %
04.02.2018 15:40 0,7 C 2,2 C 0,0 C 91 % 15 lf 1020,7 hPa 0,0 l/m 0 min 0 min 85 W/m 20,3 km/h (4 Bft) 95,74 %
04.02.2018 15:42 0,7 C 2,2 C 0,0 C 91 % 15 lf 1020,8 hPa 0,0 l/m 0 min 0 min 85 W/m 22,5 km/h (4 Bft) 94,00 %
04.02.2018 15:44 0,7 C 2,2 C 0,0 C 91 % 15 lf 1020,8 hPa 0,0 l/m 0 min 0 min 89 W/m 22,5 km/h (4 Bft) 95,74 %
04.02.2018 15:46 0,7 C 1,7 C 0,0 C 91 % 15 lf 1020,8 hPa 0,0 l/m 0 min 0 min 78 W/m 20,3 km/h (4 Bft) 95,65 %
04.02.2018 15:48 0,8 C 1,7 C 0,0 C 91 % 15 lf 1020,9 hPa 0,0 l/m 0 min 0 min 70 W/m 20,3 km/h (4 Bft) 92,00 %
04.02.2018 15:50 0,8 C 1,7 C 0,0 C 90 % 15 lf 1020,9 hPa 0,0 l/m 0 min 0 min 55 W/m 18,0 km/h (3 Bft) 91,49 %
04.02.2018 15:52 0,8 C 1,7 C 0,0 C 90 % 15 lf 1020,9 hPa 0,0 l/m 0 min 0 min 45 W/m 22,5 km/h (4 Bft) 97,14 %
04.02.2018 15:54 0,8 C 1,1 C 0,0 C 90 % 15 lf 1020,9 hPa 0,0 l/m 0 min 0 min 41 W/m 22,5 km/h (4 Bft) 91,49 %
04.02.2018 15:56 0,8 C 1,1 C -0,6 C 90 % 15 lf 1020,9 hPa 0,0 l/m 0 min 0 min 39 W/m 20,3 km/h (4 Bft) 95,74 %
04.02.2018 15:58 0,8 C 1,1 C -0,6 C 89 % 15 lf 1020,9 hPa 0,0 l/m 0 min 0 min 36 W/m 24,8 km/h (4 Bft) 95,74 %
04.02.2018 16:00 0,7 C 1,1 C -0,6 C 89 % 15 lf 1021,0 hPa 0,0 l/m 0 min 0 min 31 W/m 20,3 km/h (4 Bft) 93,48 %
04.02.2018 16:02 0,7 C 1,1 C -0,6 C 89 % 15 lf 1021,0 hPa 0,0 l/m 0 min 0 min 30 W/m 18,0 km/h (3 Bft) 98,21 %
04.02.2018 16:04 0,7 C 1,1 C -0,6 C 88 % 15 lf 1021,0 hPa 0,0 l/m 0 min 0 min 32 W/m 18,0 km/h (3 Bft) 95,74 %
04.02.2018 16:06 0,7 C 1,1 C -0,6 C 88 % 15 lf 1021,0 hPa 0,0 l/m 0 min 0 min 30 W/m 18,0 km/h (3 Bft) 96,00 %
04.02.2018 16:08 0,7 C 0,6 C -0,6 C 87 % 14 lf 1021,0 hPa 0,0 l/m 0 min 0 min 27 W/m 20,3 km/h (4 Bft) 94,29 %
04.02.2018 16:10 0,7 C 0,6 C -0,6 C 88 % 15 lf 1021,0 hPa 0,0 l/m 0 min 0 min 22 W/m 22,5 km/h (4 Bft) 95,74 %
04.02.2018 16:12 0,7 C 0,6 C -1,1 C 88 % 14 lf 1021,0 hPa 0,0 l/m 0 min 0 min 21 W/m 20,3 km/h (4 Bft) 94,55 %
04.02.2018 16:14 0,7 C 0,6 C -1,1 C 88 % 15 lf 1021,0 hPa 0,0 l/m 0 min 0 min 20 W/m 15,8 km/h (3 Bft) 93,62 %
04.02.2018 16:16 0,7 C 0,6 C -1,1 C 88 % 15 lf 1021,0 hPa 0,0 l/m 0 min 0 min 19 W/m 11,3 km/h (2 Bft) 92,00 %
04.02.2018 16:18 0,7 C 0,6 C -0,6 C 87 % 14 lf 1021,1 hPa 0,0 l/m 0 min 0 min 18 W/m 11,3 km/h (2 Bft) 93,62 %
04.02.2018 16:20 0,7 C 0,6 C -0,6 C 88 % 13 lf 1021,1 hPa 0,0 l/m 0 min 0 min 18 W/m 13,5 km/h (3 Bft) 95,65 %
04.02.2018 16:22 0,6 C 0,6 C -0,6 C 88 % 14 lf 1021,1 hPa 0,0 l/m 0 min 0 min 20 W/m 24,8 km/h (4 Bft) 97,22 %
04.02.2018 16:24 0,6 C 0,6 C -1,1 C 88 % 14 lf 1021,1 hPa 0,0 l/m 0 min 0 min 29 W/m 22,5 km/h (4 Bft) 93,48 %
04.02.2018 16:26 0,5 C 0,6 C -1,1 C 88 % 14 lf 1021,1 hPa 0,0 l/m 0 min 0 min 36 W/m 22,5 km/h (4 Bft) 96,43 %
04.02.2018 16:28 0,5 C 0,6 C -1,1 C 88 % 13 lf 1021,1 hPa 0,0 l/m 0 min 0 min 39 W/m 20,3 km/h (4 Bft) 98,00 %
04.02.2018 16:30 0,5 C 0,6 C -1,1 C 88 % 12 lf 1021,1 hPa 0,0 l/m 0 min 0 min 36 W/m 20,3 km/h (4 Bft) 97,37 %
04.02.2018 16:32 0,5 C 0,6 C -1,1 C 88 % 12 lf 1021,1 hPa 0,0 l/m 0 min 0 min 33 W/m 20,3 km/h (4 Bft) 97,87 %
04.02.2018 16:34 0,5 C 0,6 C -1,1 C 88 % 11 lf 1021,2 hPa 0,0 l/m 0 min 0 min 33 W/m 20,3 km/h (4 Bft) 93,62 %
04.02.2018 16:36 0,5 C 0,6 C -1,1 C 88 % 9 lf 1021,1 hPa 0,0 l/m 0 min 0 min 33 W/m 15,8 km/h (3 Bft) 95,65 %
04.02.2018 16:38 0,5 C 0,6 C -1,1 C 88 % 8 lf 1021,2 hPa 0,0 l/m 0 min 0 min 35 W/m 15,8 km/h (3 Bft) 95,74 %
04.02.2018 16:40 0,5 C 0,6 C -1,1 C 88 % 7 lf 1021,2 hPa 0,0 l/m 0 min 0 min 33 W/m 13,5 km/h (3 Bft) 94,64 %
04.02.2018 16:42 0,5 C 0,6 C -1,1 C 88 % 5 lf 1021,3 hPa 0,0 l/m 0 min 0 min 31 W/m 13,5 km/h (3 Bft) 97,83 %
04.02.2018 16:44 0,5 C 0,6 C -1,1 C 88 % 4 lf 1021,3 hPa 0,0 l/m 0 min 0 min 26 W/m 15,8 km/h (3 Bft) 97,87 %
04.02.2018 16:46 0,5 C 0,6 C -1,1 C 88 % 3 lf 1021,3 hPa 0,0 l/m 0 min 0 min 22 W/m 18,0 km/h (3 Bft) 94,74 %
04.02.2018 16:48 0,5 C 0,6 C -1,1 C 88 % 3 lf 1021,3 hPa 0,0 l/m 0 min 2 min 21 W/m 15,8 km/h (3 Bft) 97,87 %
04.02.2018 16:50 0,5 C 0,6 C -1,1 C 88 % 3 lf 1021,4 hPa 0,0 l/m 0 min 0 min 23 W/m 15,8 km/h (3 Bft) 96,00 %
04.02.2018 16:52 0,5 C 0,6 C -1,1 C 88 % 2 lf 1021,4 hPa 0,0 l/m 0 min 0 min 25 W/m 18,0 km/h (3 Bft) 97,87 %
04.02.2018 16:54 0,4 C 0,6 C -1,1 C 88 % 2 lf 1021,3 hPa 0,0 l/m 0 min 0 min 26 W/m 15,8 km/h (3 Bft) 94,00 %
04.02.2018 16:56 0,4 C 0,6 C -1,1 C 88 % 1 lf 1021,4 hPa 0,0 l/m 0 min 0 min 23 W/m 15,8 km/h (3 Bft) 97,83 %
04.02.2018 16:58 0,4 C 0,6 C -1,1 C 88 % 1 lf 1021,4 hPa 0,0 l/m 0 min 0 min 22 W/m 13,5 km/h (3 Bft) 91,49 %
04.02.2018 17:00 0,4 C 0,0 C -1,1 C 88 % 1 lf 1021,5 hPa 0,0 l/m 0 min 0 min 24 W/m 9,0 km/h (2 Bft) 98,00 %
04.02.2018 17:02 0,4 C 0,0 C -1,1 C 88 % 1 lf 1021,5 hPa 0,0 l/m 0 min 0 min 22 W/m 13,5 km/h (3 Bft) 97,37 %
04.02.2018 17:04 0,4 C 0,0 C -1,1 C 88 % 1 lf 1021,5 hPa 0,0 l/m 0 min 0 min 19 W/m 13,5 km/h (3 Bft) 97,87 %
04.02.2018 17:06 0,4 C 0,0 C -1,1 C 88 % 1 lf 1021,5 hPa 0,0 l/m 0 min 0 min 18 W/m 15,8 km/h (3 Bft) 95,74 %
04.02.2018 17:08 0,4 C 0,0 C -1,1 C 88 % 1 lf 1021,5 hPa 0,0 l/m 0 min 0 min 19 W/m 15,8 km/h (3 Bft) 94,34 %
04.02.2018 17:10 0,3 C 0,0 C -1,1 C 88 % 1 lf 1021,6 hPa 0,2 l/m 2 min 0 min 23 W/m 20,3 km/h (4 Bft) 94,00 %
04.02.2018 17:12 0,3 C 0,0 C -1,1 C 88 % 1 lf 1021,7 hPa 0,0 l/m 2 min 0 min 23 W/m 18,0 km/h (3 Bft) 94,59 %
04.02.2018 17:14 0,3 C 0,0 C -1,1 C 88 % 1 lf 1021,7 hPa 0,0 l/m 0 min 0 min 18 W/m 15,8 km/h (3 Bft) 91,49 %
04.02.2018 17:16 0,3 C 0,0 C -1,1 C 87 % 1 lf 1021,7 hPa 0,0 l/m 0 min 0 min 14 W/m 18,0 km/h (3 Bft) 89,36 %
04.02.2018 17:18 0,3 C 0,0 C -1,1 C 87 % 1 lf 1021,7 hPa 0,0 l/m 0 min 0 min 12 W/m 11,3 km/h (2 Bft) 95,74 %
04.02.2018 17:20 0,3 C 0,0 C -1,1 C 87 % 1 lf 1021,7 hPa 0,0 l/m 0 min 0 min 10 W/m 13,5 km/h (3 Bft) 91,49 %
04.02.2018 17:22 0,3 C 0,0 C -1,1 C 87 % 1 lf 1021,7 hPa 0,0 l/m 0 min 0 min 9 W/m 11,3 km/h (2 Bft) 95,65 %
04.02.2018 17:24 0,2 C 0,0 C -1,1 C 87 % 1 lf 1021,7 hPa 0,0 l/m 0 min 0 min 7 W/m 15,8 km/h (3 Bft) 93,62 %
04.02.2018 17:26 0,3 C 0,0 C -1,1 C 87 % 1 lf 1021,7 hPa 0,0 l/m 0 min 0 min 5 W/m 13,5 km/h (3 Bft) 94,44 %
04.02.2018 17:28 0,2 C 0,0 C -1,1 C 87 % 1 lf 1021,7 hPa 0,0 l/m 0 min 0 min 5 W/m 11,3 km/h (2 Bft) 95,74 %
04.02.2018 17:30 0,2 C 0,0 C -1,1 C 87 % 1 lf 1021,7 hPa 0,0 l/m 0 min 0 min 5 W/m 13,5 km/h (3 Bft) 95,92 %
04.02.2018 17:32 0,2 C 0,0 C -1,1 C 87 % 1 lf 1021,7 hPa 0,0 l/m 0 min 0 min 5 W/m 11,3 km/h (2 Bft) 92,11 %
04.02.2018 17:34 0,2 C 0,0 C -1,1 C 87 % 1 lf 1021,7 hPa 0,0 l/m 0 min 0 min 5 W/m 11,3 km/h (2 Bft) 97,83 %
04.02.2018 17:36 0,2 C 0,0 C -1,1 C 87 % 1 lf 1021,6 hPa 0,0 l/m 0 min 0 min 0 W/m 9,0 km/h (2 Bft) 98,15 %
04.02.2018 17:38 0,2 C 0,0 C -1,1 C 87 % 1 lf 1021,7 hPa 0,0 l/m 0 min 0 min 0 W/m 11,3 km/h (2 Bft) 98,00 %
04.02.2018 17:40 0,2 C 0,0 C -1,1 C 87 % 1 lf 1021,7 hPa 0,0 l/m 0 min 0 min 0 W/m 11,3 km/h (2 Bft) 100,00 %
04.02.2018 17:42 0,2 C 0,0 C -1,1 C 87 % 1 lf 1021,7 hPa 0,0 l/m 0 min 0 min 0 W/m 11,3 km/h (2 Bft) 100,00 %
04.02.2018 17:44 0,2 C 0,0 C -1,1 C 87 % 1 lf 1021,7 hPa 0,0 l/m 0 min 0 min 0 W/m 9,0 km/h (2 Bft) 100,00 %
04.02.2018 17:46 0,2 C 0,0 C -1,1 C 87 % 1 lf 1021,7 hPa 0,0 l/m 0 min 0 min 0 W/m 9,0 km/h (2 Bft) 100,00 %
04.02.2018 17:48 0,2 C 0,0 C -1,1 C 88 % 1 lf 1021,6 hPa 0,0 l/m 0 min 0 min 0 W/m 9,0 km/h (2 Bft) 97,87 %
04.02.2018 17:50 0,2 C 0,0 C -1,1 C 88 % 1 lf 1021,6 hPa 0,0 l/m 0 min 0 min 0 W/m 11,3 km/h (2 Bft) 100,00 %
04.02.2018 17:52 0,2 C 0,0 C -1,1 C 88 % 1 lf 1021,7 hPa 0,0 l/m 0 min 0 min 0 W/m 9,0 km/h (2 Bft) 100,00 %
04.02.2018 17:54 0,2 C 0,0 C -1,1 C 88 % 1 lf 1021,7 hPa 0,0 l/m 0 min 0 min 0 W/m 9,0 km/h (2 Bft) 100,00 %
04.02.2018 17:56 0,2 C 0,0 C -1,1 C 88 % 1 lf 1021,7 hPa 0,0 l/m 0 min 0 min 0 W/m 11,3 km/h (2 Bft) 94,34 %
04.02.2018 17:58 0,2 C 0,0 C -1,1 C 88 % 1 lf 1021,7 hPa 0,0 l/m 0 min 0 min 0 W/m 9,0 km/h (2 Bft) 100,00 %
04.02.2018 18:00 0,2 C 0,0 C -1,1 C 88 % 1 lf 1021,8 hPa 0,0 l/m 0 min 0 min 0 W/m 9,0 km/h (2 Bft) 97,87 %
04.02.2018 18:02 0,2 C 0,0 C -1,1 C 88 % 1 lf 1021,8 hPa 0,0 l/m 0 min 0 min 0 W/m 9,0 km/h (2 Bft) 100,00 %
04.02.2018 18:04 0,2 C 0,0 C -1,1 C 88 % 1 lf 1021,8 hPa 0,0 l/m 0 min 0 min 0 W/m 13,5 km/h (3 Bft) 100,00 %
04.02.2018 18:06 0,2 C 0,0 C -1,1 C 88 % 1 lf 1021,9 hPa 0,0 l/m 0 min 0 min 0 W/m 11,3 km/h (2 Bft) 97,87 %
04.02.2018 18:08 0,2 C 0,0 C -1,1 C 88 % 1 lf 1021,9 hPa 0,0 l/m 0 min 0 min 0 W/m 11,3 km/h (2 Bft) 100,00 %
04.02.2018 18:10 0,2 C 0,0 C -1,1 C 89 % 1 lf 1021,9 hPa 0,0 l/m 0 min 0 min 0 W/m 15,8 km/h (3 Bft) 97,87 %
04.02.2018 18:12 0,2 C 0,0 C -1,1 C 89 % 1 lf 1021,9 hPa 0,0 l/m 0 min 0 min 0 W/m 18,0 km/h (3 Bft) 95,74 %
04.02.2018 18:14 0,1 C 0,0 C -1,1 C 89 % 2 lf 1021,9 hPa 0,0 l/m 0 min 0 min 0 W/m 15,8 km/h (3 Bft) 94,55 %
04.02.2018 18:16 0,2 C 0,0 C -1,1 C 89 % 2 lf 1021,9 hPa 0,0 l/m 0 min 0 min 0 W/m 15,8 km/h (3 Bft) 97,37 %
04.02.2018 18:18 0,2 C 0,0 C -1,1 C 89 % 2 lf 1021,9 hPa 0,0 l/m 0 min 0 min 0 W/m 15,8 km/h (3 Bft) 100,00 %
04.02.2018 18:20 0,2 C 0,0 C -1,1 C 89 % 2 lf 1021,9 hPa 0,0 l/m 0 min 0 min 0 W/m 15,8 km/h (3 Bft) 98,25 %
04.02.2018 18:22 0,2 C 0,0 C -1,1 C 89 % 2 lf 1021,9 hPa 0,0 l/m 0 min 0 min 0 W/m 15,8 km/h (3 Bft) 95,74 %
04.02.2018 18:24 0,2 C 0,0 C -1,1 C 89 % 2 lf 1022,0 hPa 0,0 l/m 0 min 0 min 0 W/m 15,8 km/h (3 Bft) 95,74 %
04.02.2018 18:26 0,2 C 0,0 C -1,1 C 89 % 2 lf 1021,9 hPa 0,0 l/m 0 min 0 min 0 W/m 18,0 km/h (3 Bft) 100,00 %
04.02.2018 18:28 0,2 C 0,0 C -1,1 C 89 % 2 lf 1022,0 hPa 0,0 l/m 0 min 0 min 0 W/m 18,0 km/h (3 Bft) 95,74 %
04.02.2018 18:30 0,2 C 0,0 C -1,1 C 89 % 2 lf 1022,0 hPa 0,0 l/m 0 min 0 min 0 W/m 18,0 km/h (3 Bft) 95,74 %
04.02.2018 18:32 0,2 C 0,0 C -1,1 C 89 % 2 lf 1022,0 hPa 0,0 l/m 0 min 0 min 0 W/m 18,0 km/h (3 Bft) 91,30 %
04.02.2018 18:34 0,2 C 0,0 C -1,1 C 89 % 2 lf 1022,0 hPa 0,0 l/m 0 min 0 min 0 W/m 20,3 km/h (4 Bft) 94,64 %
04.02.2018 18:36 0,2 C 0,0 C -1,1 C 88 % 2 lf 1022,0 hPa 0,0 l/m 0 min 0 min 0 W/m 18,0 km/h (3 Bft) 95,74 %
04.02.2018 18:38 0,2 C 0,0 C -1,1 C 88 % 2 lf 1022,1 hPa 0,0 l/m 0 min 0 min 0 W/m 11,3 km/h (2 Bft) 92,11 %
04.02.2018 18:40 0,2 C 0,0 C -1,1 C 88 % 2 lf 1022,1 hPa 0,0 l/m 0 min 0 min 0 W/m 18,0 km/h (3 Bft) 95,74 %
04.02.2018 18:42 0,2 C 0,0 C -1,1 C 88 % 2 lf 1022,1 hPa 0,0 l/m 0 min 0 min 0 W/m 15,8 km/h (3 Bft) 93,48 %
04.02.2018 18:44 0,2 C 0,0 C -1,1 C 88 % 2 lf 1022,2 hPa 0,0 l/m 0 min 0 min 0 W/m 18,0 km/h (3 Bft) 96,00 %
04.02.2018 18:46 0,2 C 0,0 C -1,1 C 88 % 2 lf 1022,2 hPa 0,0 l/m 0 min 0 min 0 W/m 18,0 km/h (3 Bft) 95,74 %
04.02.2018 18:48 0,2 C 0,0 C -1,1 C 88 % 2 lf 1022,2 hPa 0,0 l/m 0 min 0 min 0 W/m 13,5 km/h (3 Bft) 93,62 %
04.02.2018 18:50 0,2 C 0,0 C -1,1 C 88 % 2 lf 1022,3 hPa 0,0 l/m 0 min 0 min 0 W/m 11,3 km/h (2 Bft) 94,00 %
04.02.2018 18:52 0,2 C 0,0 C -1,1 C 88 % 2 lf 1022,2 hPa 0,0 l/m 0 min 0 min 0 W/m 11,3 km/h (2 Bft) 93,48 %
04.02.2018 18:54 0,2 C 0,0 C -1,1 C 88 % 2 lf 1022,3 hPa 0,0 l/m 0 min 0 min 0 W/m 15,8 km/h (3 Bft) 93,62 %
04.02.2018 18:56 0,2 C 0,0 C -1,1 C 88 % 2 lf 1022,4 hPa 0,0 l/m 0 min 0 min 0 W/m 15,8 km/h (3 Bft) 96,00 %
04.02.2018 18:58 0,2 C 0,0 C -1,1 C 88 % 2 lf 1022,3 hPa 0,0 l/m 0 min 0 min 0 W/m 13,5 km/h (3 Bft) 93,62 %
04.02.2018 19:00 0,2 C 0,0 C -1,1 C 88 % 2 lf 1022,3 hPa 0,0 l/m 0 min 0 min 0 W/m 13,5 km/h (3 Bft) 95,74 %
04.02.2018 19:02 0,2 C 0,0 C -1,1 C 88 % 2 lf 1022,3 hPa 0,0 l/m 0 min 0 min 0 W/m 15,8 km/h (3 Bft) 94,74 %
04.02.2018 19:04 0,2 C 0,0 C -1,1 C 88 % 2 lf 1022,4 hPa 0,0 l/m 0 min 0 min 0 W/m 13,5 km/h (3 Bft) 93,88 %
04.02.2018 19:06 0,2 C 0,0 C -1,1 C 88 % 2 lf 1022,4 hPa 0,0 l/m 0 min 0 min 0 W/m 18,0 km/h (3 Bft) 93,62 %
04.02.2018 19:08 0,2 C 0,0 C -1,1 C 88 % 3 lf 1022,5 hPa 0,0 l/m 0 min 0 min 0 W/m 13,5 km/h (3 Bft) 95,74 %
04.02.2018 19:10 0,2 C 0,0 C -1,1 C 88 % 2 lf 1022,5 hPa 0,0 l/m 0 min 0 min 0 W/m 15,8 km/h (3 Bft) 95,74 %
04.02.2018 19:12 0,2 C 0,0 C -1,1 C 88 % 3 lf 1022,5 hPa 0,0 l/m 0 min 0 min 0 W/m 13,5 km/h (3 Bft) 93,62 %
04.02.2018 19:14 0,2 C 0,0 C -1,1 C 88 % 3 lf 1022,5 hPa 0,0 l/m 0 min 0 min 0 W/m 11,3 km/h (2 Bft) 100,00 %
04.02.2018 19:16 0,2 C 0,0 C -1,1 C 88 % 3 lf 1022,6 hPa 0,0 l/m 0 min 0 min 0 W/m 13,5 km/h (3 Bft) 95,92 %
04.02.2018 19:18 0,2 C 0,0 C -1,1 C 88 % 3 lf 1022,6 hPa 0,0 l/m 0 min 0 min 0 W/m 13,5 km/h (3 Bft) 97,87 %
04.02.2018 19:20 0,2 C 0,0 C -1,1 C 88 % 3 lf 1022,7 hPa 0,0 l/m 0 min 0 min 0 W/m 13,5 km/h (3 Bft) 96,00 %
04.02.2018 19:22 0,2 C 0,0 C -1,1 C 88 % 3 lf 1022,7 hPa 0,0 l/m 0 min 0 min 0 W/m 15,8 km/h (3 Bft) 95,74 %
04.02.2018 19:24 0,2 C 0,0 C -1,1 C 89 % 3 lf 1022,7 hPa 0,0 l/m 0 min 0 min 0 W/m 18,0 km/h (3 Bft) 97,87 %
04.02.2018 19:26 0,2 C 0,0 C -1,1 C 88 % 3 lf 1022,7 hPa 0,0 l/m 0 min 0 min 0 W/m 11,3 km/h (2 Bft) 97,14 %
04.02.2018 19:28 0,2 C 0,0 C -1,1 C 88 % 4 lf 1022,8 hPa 0,0 l/m 0 min 0 min 0 W/m 11,3 km/h (2 Bft) 98,18 %
04.02.2018 19:30 0,2 C 0,0 C -1,1 C 88 % 4 lf 1022,8 hPa 0,0 l/m 0 min 0 min 0 W/m 15,8 km/h (3 Bft) 96,00 %
04.02.2018 19:32 0,2 C 0,0 C -1,1 C 89 % 4 lf 1022,8 hPa 0,0 l/m 0 min 0 min 0 W/m 15,8 km/h (3 Bft) 100,00 %
04.02.2018 19:34 0,3 C 0,0 C -1,1 C 89 % 4 lf 1022,8 hPa 0,0 l/m 0 min 0 min 0 W/m 13,5 km/h (3 Bft) 100,00 %
04.02.2018 19:36 0,3 C 0,0 C -1,1 C 89 % 4 lf 1022,8 hPa 0,0 l/m 0 min 0 min 0 W/m 13,5 km/h (3 Bft) 98,00 %
04.02.2018 19:38 0,3 C 0,0 C -1,1 C 89 % 4 lf 1022,8 hPa 0,0 l/m 0 min 0 min 0 W/m 15,8 km/h (3 Bft) 100,00 %
04.02.2018 19:40 0,3 C 0,0 C -1,1 C 89 % 4 lf 1022,8 hPa 0,0 l/m 0 min 0 min 0 W/m 15,8 km/h (3 Bft) 95,74 %
04.02.2018 19:42 0,2 C 0,0 C -1,1 C 89 % 4 lf 1022,9 hPa 0,0 l/m 0 min 0 min 0 W/m 20,3 km/h (4 Bft) 97,87 %
04.02.2018 19:44 0,2 C 0,0 C -1,1 C 89 % 3 lf 1022,8 hPa 0,0 l/m 0 min 0 min 0 W/m 22,5 km/h (4 Bft) 100,00 %
04.02.2018 19:46 0,2 C 0,0 C -1,1 C 89 % 3 lf 1022,9 hPa 0,0 l/m 0 min 0 min 0 W/m 18,0 km/h (3 Bft) 97,87 %
04.02.2018 19:48 0,2 C 0,0 C -1,1 C 89 % 2 lf 1022,9 hPa 0,0 l/m 0 min 0 min 0 W/m 13,5 km/h (3 Bft) 100,00 %
04.02.2018 19:50 0,2 C 0,0 C -1,1 C 89 % 2 lf 1022,9 hPa 0,0 l/m 0 min 0 min 0 W/m 18,0 km/h (3 Bft) 100,00 %
04.02.2018 19:52 0,2 C 0,0 C -1,1 C 89 % 1 lf 1022,9 hPa 0,0 l/m 0 min 0 min 0 W/m 18,0 km/h (3 Bft) 100,00 %
04.02.2018 19:54 0,2 C 0,0 C -1,1 C 89 % 1 lf 1022,9 hPa 0,0 l/m 0 min 0 min 0 W/m 15,8 km/h (3 Bft) 100,00 %
04.02.2018 19:56 0,2 C 0,0 C -1,1 C 89 % 1 lf 1022,9 hPa 0,0 l/m 0 min 0 min 0 W/m 18,0 km/h (3 Bft) 95,74 %
04.02.2018 19:58 0,1 C 0,0 C -1,1 C 89 % 1 lf 1023,0 hPa 0,0 l/m 0 min 0 min 0 W/m 13,5 km/h (3 Bft) 96,00 %
04.02.2018 20:00 0,1 C 0,0 C -1,1 C 89 % 1 lf 1022,9 hPa 0,0 l/m 0 min 0 min 0 W/m 13,5 km/h (3 Bft) 100,00 %
04.02.2018 20:02 0,1 C 0,0 C -1,1 C 89 % 1 lf 1023,0 hPa 0,0 l/m 0 min 0 min 0 W/m 15,8 km/h (3 Bft) 97,14 %
04.02.2018 20:04 0,1 C 0,0 C -1,1 C 89 % 1 lf 1023,0 hPa 0,0 l/m 0 min 0 min 0 W/m 15,8 km/h (3 Bft) 97,87 %
04.02.2018 20:06 0,1 C 0,0 C -1,1 C 90 % 1 lf 1023,0 hPa 0,0 l/m 0 min 0 min 0 W/m 18,0 km/h (3 Bft) 97,83 %
04.02.2018 20:08 0,1 C 0,0 C -1,1 C 90 % 1 lf 1023,0 hPa 0,0 l/m 0 min 0 min 0 W/m 15,8 km/h (3 Bft) 98,21 %
04.02.2018 20:10 0,1 C 0,0 C -1,1 C 90 % 1 lf 1023,0 hPa 0,0 l/m 0 min 0 min 0 W/m 15,8 km/h (3 Bft) 100,00 %
04.02.2018 20:12 0,0 C 0,0 C -1,1 C 90 % 1 lf 1023,0 hPa 0,0 l/m 0 min 0 min 0 W/m 13,5 km/h (3 Bft) 100,00 %
04.02.2018 20:14 0,0 C 0,0 C -1,1 C 90 % 1 lf 1023,0 hPa 0,0 l/m 0 min 0 min 0 W/m 15,8 km/h (3 Bft) 97,83 %
04.02.2018 20:16 0,0 C 0,0 C -1,1 C 90 % 1 lf 1023,0 hPa 0,0 l/m 0 min 0 min 0 W/m 18,0 km/h (3 Bft) 97,87 %
04.02.2018 20:18 -0,1 C 0,0 C -1,1 C 90 % 1 lf 1023,0 hPa 0,0 l/m 0 min 0 min 0 W/m 27,0 km/h (4 Bft) 100,00 %
04.02.2018 20:20 -0,1 C 0,0 C -1,1 C 90 % 1 lf 1023,1 hPa 0,0 l/m 0 min 0 min 0 W/m 18,0 km/h (3 Bft) 97,87 %
04.02.2018 20:22 -0,1 C 0,0 C -1,1 C 90 % 1 lf 1023,0 hPa 0,0 l/m 0 min 0 min 0 W/m 15,8 km/h (3 Bft) 100,00 %
04.02.2018 20:24 -0,1 C 0,0 C -1,1 C 90 % 1 lf 1023,1 hPa 0,0 l/m 0 min 0 min 0 W/m 15,8 km/h (3 Bft) 100,00 %
04.02.2018 20:26 -0,1 C 0,0 C -1,1 C 90 % 1 lf 1023,1 hPa 0,0 l/m 0 min 0 min 0 W/m 20,3 km/h (4 Bft) 100,00 %
04.02.2018 20:28 -0,1 C 0,0 C -1,1 C 90 % 1 lf 1023,3 hPa 0,0 l/m 0 min 0 min 0 W/m 15,8 km/h (3 Bft) 100,00 %
04.02.2018 20:30 -0,1 C 0,0 C -1,1 C 90 % 1 lf 1023,2 hPa 0,0 l/m 0 min 0 min 0 W/m 15,8 km/h (3 Bft) 96,00 %
04.02.2018 20:32 -0,1 C 0,0 C -1,1 C 90 % 1 lf 1023,2 hPa 0,0 l/m 0 min 0 min 0 W/m 18,0 km/h (3 Bft) 97,87 %
04.02.2018 20:34 -0,1 C 0,0 C -1,1 C 90 % 1 lf 1023,3 hPa 0,0 l/m 0 min 0 min 0 W/m 15,8 km/h (3 Bft) 97,87 %
04.02.2018 20:36 -0,1 C 0,0 C -1,1 C 91 % 0 lf 1023,2 hPa 0,0 l/m 0 min 0 min 0 W/m 18,0 km/h (3 Bft) 97,83 %
04.02.2018 20:38 -0,1 C 0,0 C -1,1 C 91 % 0 lf 1023,3 hPa 0,0 l/m 0 min 0 min 0 W/m 18,0 km/h (3 Bft) 94,74 %
04.02.2018 20:40 -0,1 C -0,6 C -1,7 C 91 % 0 lf 1023,3 hPa 0,0 l/m 0 min 0 min 0 W/m 22,5 km/h (4 Bft) 97,87 %
04.02.2018 20:42 -0,1 C -0,6 C -1,7 C 91 % 0 lf 1023,3 hPa 0,0 l/m 0 min 0 min 0 W/m 18,0 km/h (3 Bft) 97,87 %
04.02.2018 20:44 -0,2 C -0,6 C -1,7 C 91 % 0 lf 1023,3 hPa 0,0 l/m 0 min 0 min 0 W/m 18,0 km/h (3 Bft) 97,87 %
04.02.2018 20:46 -0,2 C -0,6 C -1,7 C 91 % 0 lf 1023,3 hPa 0,0 l/m 0 min 0 min 0 W/m 18,0 km/h (3 Bft) 97,87 %
04.02.2018 20:48 -0,2 C -0,6 C -1,7 C 91 % 0 lf 1023,4 hPa 0,0 l/m 0 min 0 min 0 W/m 18,0 km/h (3 Bft) 96,00 %
04.02.2018 20:50 -0,2 C -0,6 C -1,7 C 91 % 0 lf 1023,4 hPa 0,0 l/m 0 min 0 min 0 W/m 18,0 km/h (3 Bft) 95,65 %
04.02.2018 20:52 -0,2 C -0,6 C -1,7 C 91 % 0 lf 1023,4 hPa 0,0 l/m 0 min 0 min 0 W/m 15,8 km/h (3 Bft) 95,74 %
04.02.2018 20:54 -0,2 C -0,6 C -1,7 C 91 % 0 lf 1023,4 hPa 0,0 l/m 0 min 0 min 0 W/m 18,0 km/h (3 Bft) 96,00 %
04.02.2018 20:56 -0,3 C -0,6 C -1,7 C 91 % 0 lf 1023,5 hPa 0,0 l/m 0 min 0 min 0 W/m 15,8 km/h (3 Bft) 91,49 %
04.02.2018 20:58 -0,3 C -0,6 C -1,7 C 91 % 0 lf 1023,5 hPa 0,0 l/m 0 min 0 min 0 W/m 13,5 km/h (3 Bft) 93,62 %
04.02.2018 21:00 -0,3 C -0,6 C -1,7 C 91 % 0 lf 1023,5 hPa 0,0 l/m 0 min 0 min 0 W/m 13,5 km/h (3 Bft) 93,62 %
04.02.2018 21:02 -0,3 C -0,6 C -1,7 C 91 % 0 lf 1023,6 hPa 0,0 l/m 0 min 0 min 0 W/m 13,5 km/h (3 Bft) 94,29 %
04.02.2018 21:04 -0,3 C -0,6 C -1,7 C 91 % 0 lf 1023,6 hPa 0,0 l/m 0 min 0 min 0 W/m 15,8 km/h (3 Bft) 91,30 %
04.02.2018 21:06 -0,3 C -0,6 C -1,7 C 91 % 0 lf 1023,6 hPa 0,0 l/m 0 min 0 min 0 W/m 11,3 km/h (2 Bft) 92,86 %
04.02.2018 21:08 -0,4 C -1,1 C -1,7 C 91 % 0 lf 1023,6 hPa 0,0 l/m 0 min 0 min 0 W/m 11,3 km/h (2 Bft) 94,00 %
04.02.2018 21:10 -0,4 C -1,1 C -1,7 C 91 % 0 lf 1023,6 hPa 0,0 l/m 0 min 0 min 0 W/m 9,0 km/h (2 Bft) 93,62 %
04.02.2018 21:12 -0,4 C -1,1 C -2,2 C 91 % 0 lf 1023,6 hPa 0,0 l/m 0 min 0 min 0 W/m 9,0 km/h (2 Bft) 93,48 %
04.02.2018 21:14 -0,4 C -1,1 C -1,7 C 91 % 0 lf 1023,6 hPa 0,0 l/m 0 min 0 min 0 W/m 9,0 km/h (2 Bft) 96,00 %
04.02.2018 21:16 -0,4 C -1,1 C -1,7 C 91 % 0 lf 1023,6 hPa 0,0 l/m 0 min 0 min 0 W/m 11,3 km/h (2 Bft) 92,11 %
04.02.2018 21:18 -0,4 C -1,1 C -2,2 C 91 % 0 lf 1023,6 hPa 0,0 l/m 0 min 0 min 0 W/m 13,5 km/h (3 Bft) 92,00 %
04.02.2018 21:20 -0,4 C -1,1 C -2,2 C 91 % 0 lf 1023,7 hPa 0,0 l/m 0 min 0 min 0 W/m 13,5 km/h (3 Bft) 90,00 %
04.02.2018 21:22 -0,5 C -1,1 C -2,2 C 91 % 0 lf 1023,6 hPa 0,0 l/m 0 min 0 min 0 W/m 9,0 km/h (2 Bft) 91,49 %
04.02.2018 21:24 -0,5 C -1,1 C -2,2 C 91 % 0 lf 1023,7 hPa 0,0 l/m 0 min 0 min 0 W/m 9,0 km/h (2 Bft) 89,13 %
04.02.2018 21:26 -0,5 C -1,1 C -2,2 C 91 % 0 lf 1023,7 hPa 0,0 l/m 0 min 0 min 0 W/m 11,3 km/h (2 Bft) 92,00 %
04.02.2018 21:28 -0,5 C -1,1 C -2,2 C 91 % 0 lf 1023,7 hPa 0,0 l/m 0 min 0 min 0 W/m 11,3 km/h (2 Bft) 93,62 %
04.02.2018 21:30 -0,6 C -1,1 C -2,2 C 91 % 0 lf 1023,7 hPa 0,0 l/m 0 min 0 min 0 W/m 13,5 km/h (3 Bft) 93,62 %
04.02.2018 21:32 -0,6 C -1,1 C -2,2 C 91 % 0 lf 1023,7 hPa 0,0 l/m 0 min 0 min 0 W/m 11,3 km/h (2 Bft) 89,47 %
04.02.2018 21:34 -0,6 C -1,1 C -2,2 C 91 % 0 lf 1023,8 hPa 0,0 l/m 0 min 0 min 0 W/m 11,3 km/h (2 Bft) 94,00 %
04.02.2018 21:36 -0,6 C -1,1 C -2,2 C 91 % 0 lf 1023,8 hPa 0,0 l/m 0 min 0 min 0 W/m 9,0 km/h (2 Bft) 89,80 %
04.02.2018 21:38 -0,6 C -1,1 C -2,2 C 91 % 0 lf 1023,8 hPa 0,0 l/m 0 min 0 min 0 W/m 11,3 km/h (2 Bft) 94,00 %
04.02.2018 21:40 -0,6 C -1,1 C -2,2 C 91 % 0 lf 1023,8 hPa 0,0 l/m 0 min 0 min 0 W/m 11,3 km/h (2 Bft) 89,36 %
04.02.2018 21:42 -0,7 C -1,1 C -2,2 C 91 % 0 lf 1023,8 hPa 0,0 l/m 0 min 0 min 0 W/m 13,5 km/h (3 Bft) 95,74 %
04.02.2018 21:44 -0,7 C -1,1 C -2,2 C 91 % 0 lf 1023,9 hPa 0,0 l/m 0 min 0 min 0 W/m 15,8 km/h (3 Bft) 97,87 %
04.02.2018 21:46 -0,7 C -1,1 C -2,2 C 91 % 0 lf 1023,9 hPa 0,0 l/m 0 min 0 min 0 W/m 15,8 km/h (3 Bft) 95,65 %
04.02.2018 21:48 -0,7 C -1,1 C -2,2 C 91 % 0 lf 1023,8 hPa 0,0 l/m 0 min 0 min 0 W/m 11,3 km/h (2 Bft) 95,74 %
04.02.2018 21:50 -0,7 C -1,1 C -1,7 C 91 % 0 lf 1023,8 hPa 0,0 l/m 0 min 0 min 0 W/m 15,8 km/h (3 Bft) 96,00 %
04.02.2018 21:52 -0,7 C -1,1 C -1,7 C 92 % 0 lf 1023,9 hPa 0,0 l/m 0 min 0 min 0 W/m 15,8 km/h (3 Bft) 94,29 %
04.02.2018 21:54 -0,7 C -1,1 C -1,7 C 92 % 0 lf 1023,9 hPa 0,0 l/m 0 min 0 min 0 W/m 13,5 km/h (3 Bft) 95,74 %
04.02.2018 21:56 -0,7 C -1,1 C -1,7 C 92 % 0 lf 1023,9 hPa 0,0 l/m 0 min 0 min 0 W/m 13,5 km/h (3 Bft) 95,74 %
04.02.2018 21:58 -0,7 C -1,1 C -1,7 C 92 % 0 lf 1024,0 hPa 0,0 l/m 0 min 0 min 0 W/m 13,5 km/h (3 Bft) 98,00 %
04.02.2018 22:00 -0,7 C -1,1 C -2,2 C 92 % 0 lf 1024,0 hPa 0,0 l/m 0 min 0 min 0 W/m 13,5 km/h (3 Bft) 89,13 %
04.02.2018 22:02 -0,7 C -1,1 C -2,2 C 92 % 0 lf 1024,0 hPa 0,0 l/m 0 min 0 min 0 W/m 9,0 km/h (2 Bft) 95,74 %
04.02.2018 22:04 -0,7 C -1,1 C -2,2 C 92 % 0 lf 1024,0 hPa 0,0 l/m 0 min 0 min 0 W/m 15,8 km/h (3 Bft) 96,00 %
04.02.2018 22:06 -0,7 C -1,1 C -2,2 C 92 % 0 lf 1024,1 hPa 0,0 l/m 0 min 0 min 0 W/m 20,3 km/h (4 Bft) 96,00 %
04.02.2018 22:08 -0,7 C -1,1 C -2,2 C 92 % 0 lf 1024,0 hPa 0,0 l/m 0 min 0 min 0 W/m 13,5 km/h (3 Bft) 94,29 %
04.02.2018 22:10 -0,7 C -1,1 C -1,7 C 92 % 0 lf 1024,1 hPa 0,0 l/m 0 min 0 min 0 W/m 11,3 km/h (2 Bft) 97,87 %
04.02.2018 22:12 -0,7 C -1,1 C -1,7 C 92 % 0 lf 1024,1 hPa 0,0 l/m 0 min 0 min 0 W/m 18,0 km/h (3 Bft) 96,36 %
04.02.2018 22:14 -0,7 C -1,1 C -1,7 C 92 % 0 lf 1024,0 hPa 0,0 l/m 0 min 0 min 0 W/m 13,5 km/h (3 Bft) 98,00 %
04.02.2018 22:16 -0,7 C -1,1 C -2,2 C 92 % 0 lf 1024,1 hPa 0,0 l/m 0 min 0 min 0 W/m 18,0 km/h (3 Bft) 94,29 %
04.02.2018 22:18 -0,7 C -1,1 C -2,2 C 92 % 0 lf 1024,1 hPa 0,0 l/m 0 min 0 min 0 W/m 13,5 km/h (3 Bft) 97,87 %
04.02.2018 22:20 -0,7 C -1,1 C -2,2 C 92 % 0 lf 1024,2 hPa 0,0 l/m 0 min 0 min 0 W/m 15,8 km/h (3 Bft) 100,00 %
04.02.2018 22:22 -0,7 C -1,1 C -2,2 C 92 % 0 lf 1024,2 hPa 0,0 l/m 0 min 0 min 0 W/m 18,0 km/h (3 Bft) 100,00 %
04.02.2018 22:24 -0,7 C -1,1 C -2,2 C 92 % 0 lf 1024,2 hPa 0,0 l/m 0 min 0 min 0 W/m 18,0 km/h (3 Bft) 97,56 %
04.02.2018 22:26 -0,7 C -1,1 C -1,7 C 92 % 0 lf 1024,2 hPa 0,0 l/m 0 min 0 min 0 W/m 15,8 km/h (3 Bft) 98,21 %
04.02.2018 22:28 -0,7 C -1,1 C -2,2 C 92 % 0 lf 1024,2 hPa 0,0 l/m 0 min 0 min 0 W/m 18,0 km/h (3 Bft) 96,00 %
04.02.2018 22:30 -0,7 C -1,1 C -2,2 C 92 % 0 lf 1024,2 hPa 0,0 l/m 0 min 0 min 0 W/m 15,8 km/h (3 Bft) 97,14 %
04.02.2018 22:32 -0,7 C -1,1 C -2,2 C 92 % 0 lf 1024,2 hPa 0,0 l/m 0 min 0 min 0 W/m 18,0 km/h (3 Bft) 100,00 %
04.02.2018 22:34 -0,7 C -1,1 C -2,2 C 92 % 0 lf 1024,2 hPa 0,0 l/m 0 min 0 min 0 W/m 13,5 km/h (3 Bft) 100,00 %
04.02.2018 22:36 -0,7 C -1,1 C -2,2 C 92 % 0 lf 1024,2 hPa 0,0 l/m 0 min 0 min 0 W/m 11,3 km/h (2 Bft) 95,65 %
04.02.2018 22:38 -0,7 C -1,7 C -2,8 C 92 % 0 lf 1024,3 hPa 0,0 l/m 0 min 0 min 0 W/m 9,0 km/h (2 Bft) 97,87 %
04.02.2018 22:40 -0,7 C -1,7 C -2,8 C 92 % 0 lf 1024,2 hPa 0,0 l/m 0 min 0 min 0 W/m 13,5 km/h (3 Bft) 100,00 %
04.02.2018 22:42 -0,8 C -1,7 C -2,8 C 92 % 0 lf 1024,3 hPa 0,0 l/m 0 min 0 min 0 W/m 13,5 km/h (3 Bft) 100,00 %
04.02.2018 22:44 -0,8 C -1,7 C -2,8 C 92 % 0 lf 1024,2 hPa 0,0 l/m 0 min 0 min 0 W/m 18,0 km/h (3 Bft) 100,00 %
04.02.2018 22:46 -0,8 C -1,7 C -2,8 C 92 % 0 lf 1024,3 hPa 0,0 l/m 0 min 0 min 0 W/m 11,3 km/h (2 Bft) 97,87 %
04.02.2018 22:48 -0,8 C -1,7 C -2,2 C 92 % 0 lf 1024,4 hPa 0,0 l/m 0 min 0 min 0 W/m 15,8 km/h (3 Bft) 93,48 %
04.02.2018 22:50 -0,8 C -1,7 C -2,2 C 92 % 0 lf 1024,3 hPa 0,0 l/m 0 min 0 min 0 W/m 24,8 km/h (4 Bft) 97,87 %
04.02.2018 22:52 -0,8 C -1,7 C -2,2 C 91 % 0 lf 1024,3 hPa 0,0 l/m 0 min 0 min 0 W/m 18,0 km/h (3 Bft) 100,00 %
04.02.2018 22:54 -0,8 C -1,7 C -2,2 C 91 % 0 lf 1024,4 hPa 0,0 l/m 0 min 0 min 0 W/m 15,8 km/h (3 Bft) 100,00 %
04.02.2018 22:56 -0,8 C -1,7 C -2,2 C 91 % 0 lf 1024,3 hPa 0,0 l/m 0 min 0 min 0 W/m 18,0 km/h (3 Bft) 97,87 %
04.02.2018 22:58 -0,8 C -1,7 C -2,8 C 91 % 0 lf 1024,3 hPa 0,0 l/m 0 min 0 min 0 W/m 20,3 km/h (4 Bft) 97,87 %
04.02.2018 23:00 -0,8 C -1,7 C -2,8 C 91 % 0 lf 1024,3 hPa 0,0 l/m 0 min 0 min 0 W/m 15,8 km/h (3 Bft) 97,83 %
04.02.2018 23:02 -0,9 C -1,7 C -2,8 C 91 % 0 lf 1024,3 hPa 0,0 l/m 0 min 0 min 0 W/m 15,8 km/h (3 Bft) 95,74 %
04.02.2018 23:04 -0,9 C -1,7 C -2,8 C 91 % 0 lf 1024,3 hPa 0,0 l/m 0 min 0 min 0 W/m 15,8 km/h (3 Bft) 97,87 %
04.02.2018 23:06 -0,9 C -1,7 C -2,8 C 91 % 0 lf 1024,2 hPa 0,0 l/m 0 min 0 min 0 W/m 15,8 km/h (3 Bft) 98,15 %
04.02.2018 23:08 -0,9 C -2,2 C -2,8 C 91 % 0 lf 1024,3 hPa 0,0 l/m 0 min 0 min 0 W/m 9,0 km/h (2 Bft) 97,87 %
04.02.2018 23:10 -0,9 C -2,2 C -2,8 C 91 % 0 lf 1024,2 hPa 0,0 l/m 0 min 0 min 0 W/m 13,5 km/h (3 Bft) 97,83 %
04.02.2018 23:12 -0,9 C -2,2 C -2,8 C 91 % 0 lf 1024,3 hPa 0,0 l/m 0 min 0 min 0 W/m 13,5 km/h (3 Bft) 95,74 %
04.02.2018 23:14 -1,0 C -2,2 C -2,8 C 91 % 0 lf 1024,3 hPa 0,0 l/m 0 min 0 min 0 W/m 13,5 km/h (3 Bft) 95,74 %
04.02.2018 23:16 -1,0 C -2,2 C -2,8 C 91 % 0 lf 1024,3 hPa 0,0 l/m 0 min 0 min 0 W/m 15,8 km/h (3 Bft) 97,87 %
04.02.2018 23:18 -1,0 C -2,2 C -2,8 C 91 % 0 lf 1024,3 hPa 0,0 l/m 0 min 0 min 0 W/m 9,0 km/h (2 Bft) 97,87 %
04.02.2018 23:20 -1,1 C -2,2 C -2,8 C 91 % 0 lf 1024,3 hPa 0,0 l/m 0 min 0 min 0 W/m 9,0 km/h (2 Bft) 97,83 %
04.02.2018 23:22 -1,1 C -2,2 C -2,8 C 91 % 0 lf 1024,3 hPa 0,0 l/m 0 min 0 min 0 W/m 9,0 km/h (2 Bft) 95,74 %
04.02.2018 23:24 -1,1 C -2,2 C -3,3 C 91 % 0 lf 1024,4 hPa 0,0 l/m 0 min 0 min 0 W/m 9,0 km/h (2 Bft) 93,62 %
04.02.2018 23:26 -1,1 C -2,2 C -3,3 C 91 % 0 lf 1024,4 hPa 0,0 l/m 0 min 0 min 0 W/m 9,0 km/h (2 Bft) 97,87 %
04.02.2018 23:28 -1,1 C -2,2 C -3,3 C 91 % 0 lf 1024,4 hPa 0,0 l/m 0 min 0 min 0 W/m 11,3 km/h (2 Bft) 100,00 %
04.02.2018 23:30 -1,1 C -2,2 C -3,3 C 91 % 0 lf 1024,4 hPa 0,0 l/m 0 min 0 min 0 W/m 9,0 km/h (2 Bft) 95,74 %
04.02.2018 23:32 -1,1 C -2,2 C -3,3 C 91 % 0 lf 1024,4 hPa 0,0 l/m 0 min 0 min 0 W/m 20,3 km/h (4 Bft) 91,30 %
04.02.2018 23:34 -1,2 C -2,2 C -3,3 C 91 % 0 lf 1024,4 hPa 0,0 l/m 0 min 0 min 0 W/m 15,8 km/h (3 Bft) 97,87 %
04.02.2018 23:36 -1,2 C -2,2 C -3,3 C 91 % 0 lf 1024,5 hPa 0,0 l/m 0 min 0 min 0 W/m 11,3 km/h (2 Bft) 93,62 %
04.02.2018 23:38 -1,2 C -2,2 C -3,3 C 91 % 0 lf 1024,6 hPa 0,0 l/m 0 min 0 min 0 W/m 9,0 km/h (2 Bft) 97,87 %
04.02.2018 23:40 -1,2 C -2,2 C -3,3 C 91 % 0 lf 1024,5 hPa 0,0 l/m 0 min 0 min 0 W/m 9,0 km/h (2 Bft) 97,87 %
04.02.2018 23:42 -1,2 C -2,2 C -3,3 C 91 % 0 lf 1024,6 hPa 0,0 l/m 0 min 0 min 0 W/m 9,0 km/h (2 Bft) 95,74 %
04.02.2018 23:44 -1,2 C -2,2 C -3,3 C 91 % 0 lf 1024,5 hPa 0,0 l/m 0 min 0 min 0 W/m 11,3 km/h (2 Bft) 97,83 %
04.02.2018 23:46 -1,3 C -2,2 C -3,3 C 91 % 0 lf 1024,5 hPa 0,0 l/m 0 min 0 min 0 W/m 9,0 km/h (2 Bft) 97,87 %
04.02.2018 23:48 -1,3 C -2,2 C -3,3 C 91 % 0 lf 1024,5 hPa 0,0 l/m 0 min 0 min 0 W/m 9,0 km/h (2 Bft) 97,87 %
04.02.2018 23:50 -1,3 C -2,2 C -3,3 C 91 % 0 lf 1024,5 hPa 0,0 l/m 0 min 0 min 0 W/m 11,3 km/h (2 Bft) 95,74 %
04.02.2018 23:52 -1,3 C -2,2 C -3,3 C 91 % 0 lf 1024,6 hPa 0,0 l/m 0 min 0 min 0 W/m 9,0 km/h (2 Bft) 100,00 %
04.02.2018 23:54 -1,3 C -2,2 C -3,3 C 91 % 0 lf 1024,6 hPa 0,0 l/m 0 min 0 min 0 W/m 9,0 km/h (2 Bft) 95,92 %
04.02.2018 23:56 -1,3 C -2,2 C -3,3 C 91 % 0 lf 1024,6 hPa 0,0 l/m 0 min 0 min 0 W/m 9,0 km/h (2 Bft) 95,74 %
04.02.2018 23:58 -1,4 C -2,2 C -3,3 C 91 % 0 lf 1024,6 hPa 0,0 l/m 0 min 0 min 0 W/m 15,8 km/h (3 Bft) 95,74 %
_ Min-Zeit 23:58 23:08 23:24 06:18 00:14 00:00 - - - - 09:04 08:36
Minimum _ -1,4 C -2,2 C -3,3 C 80 % 0 lf 1008,5 hPa - - - - 4,5 km/h (1 Bft) 73,91 %
_ Max-Zeit 00:04 09:58 00:00 00:00 01:20 23:38 12:56 09:52 01:42 14:32 02:10 00:18
Maximum _ 2,3 C 5,0 C 1,7 C 95 % 15 lf 1024,6 hPa 0,2 l/m 2 min 2 min 210 W/m 33,8 km/h
N-NO (5 Bft)
100,00 %
Durchschnitt _ 0,1 C 0,2 C -1,0 C 89 % 5 lf 1017,9 hPa #0,6 l/m #40 min. #1:12 h 60 W/m 17,2 km/h (3 Bft) 96,40 %
© 2018 W. Hausmann